AT784 Weather Reports


time (UTC)temp
F
wind
direction
speed
knots
gust
knots
rain 1hr
in
rain 24hr
in
rain mn
in
humidity
%
barometer
mb
20260508182307 59 251 3.5 8.7 0.00 0.00 0.00 35 1008.7
20260508182206 59 251 3.5 8.7 0.00 0.00 0.00 35 1008.7
20260508182127 59 247 3.5 8.7 0.00 0.00 0.00 34 1008.7
20260508182006 59 246 3.5 8.7 0.00 0.00 0.00 33 1008.8
20260508181906 59 243 3.5 8.7 0.00 0.00 0.00 33 1008.8
20260508181806 59 240 3.5 8.7 0.00 0.00 0.00 34 1008.8
20260508181706 58 241 3.5 8.7 0.00 0.00 0.00 34 1008.8
20260508181606 59 244 3.5 8.7 0.00 0.00 0.00 33 1008.8
20260508181506 59 245 4.3 8.7 0.00 0.00 0.00 33 1008.9
20260508181407 59 247 4.3 9.6 0.00 0.00 0.00 32 1008.9
20260508181328 59 248 4.3 9.6 0.00 0.00 0.00 32 1008.8
20260508181207 59 249 4.3 9.6 0.00 0.00 0.00 34 1008.8
20260508181106 59 252 4.3 9.6 0.00 0.00 0.00 34 1008.8
20260508181027 59 252 4.3 11.3 0.00 0.00 0.00 33 1008.8
20260508180906 59 252 5.2 11.3 0.00 0.00 0.00 33 1008.9
20260508180806 59 253 4.3 11.3 0.00 0.00 0.00 33 1008.9
20260508180706 59 254 4.3 11.3 0.00 0.00 0.00 33 1008.9
20260508180606 59 254 4.3 11.3 0.00 0.00 0.00 32 1008.9
20260508180506 59 255 4.3 11.3 0.00 0.00 0.00 32 1009.0
20260508180427 59 256 4.3 11.3 0.00 0.00 0.00 33 1009.0
20260508180307 59 262 4.3 11.3 0.00 0.00 0.00 34 1009.0
20260508180206 59 263 4.3 11.3 0.00 0.00 0.00 32 1009.0
20260508180127 59 261 4.3 11.3 0.00 0.00 0.00 32 1009.0
20260508180006 59 266 3.5 8.7 0.00 0.00 0.00 33 1009.0
20260508175906 59 266 3.5 8.7 0.00 0.00 0.00 32 1009.0
20260508175807 59 263 3.5 7.8 0.00 0.00 0.00 32 1009.1
20260508175706 59 258 3.5 7.8 0.00 0.00 0.00 31 1009.1
20260508175606 59 252 3.5 7.8 0.00 0.00 0.00 32 1009.1
20260508175506 59 243 3.5 8.7 0.00 0.00 0.00 31 1009.1
20260508175406 59 237 3.5 8.7 0.00 0.00 0.00 30 1009.1
20260508175306 59 230 2.6 8.7 0.00 0.00 0.00 31 1009.1
20260508175227 59 226 2.6 8.7 0.00 0.00 0.00 30 1009.1
20260508175106 59 220 2.6 8.7 0.00 0.00 0.00 32 1009.2
20260508175006 59 214 2.6 8.7 0.00 0.00 0.00 31 1009.2
20260508174906 59 211 2.6 8.7 0.00 0.00 0.00 31 1009.2
20260508174806 59 220 2.6 8.7 0.00 0.00 0.00 32 1009.2
20260508174706 59 227 3.5 8.7 0.00 0.00 0.00 32 1009.2
20260508174606 59 234 3.5 9.6 0.00 0.00 0.00 32 1009.2
20260508174506 59 240 3.5 9.6 0.00 0.00 0.00 32 1009.3
20260508174406 59 242 3.5 9.6 0.00 0.00 0.00 32 1009.3
20260508174306 59 244 3.5 9.6 0.00 0.00 0.00 32 1009.3
20260508174206 59 248 3.5 9.6 0.00 0.00 0.00 33 1009.3
20260508174106 59 251 3.5 9.6 0.00 0.00 0.00 33 1009.3
20260508174006 59 255 3.5 9.6 0.00 0.00 0.00 33 1009.3
20260508173906 59 258 3.5 9.6 0.00 0.00 0.00 31 1009.3
20260508173806 59 257 3.5 9.6 0.00 0.00 0.00 31 1009.3
20260508173706 59 256 3.5 9.6 0.00 0.00 0.00 32 1009.3
20260508173606 59 253 2.6 9.6 0.00 0.00 0.00 33 1009.4
20260508173506 59 249 2.6 9.6 0.00 0.00 0.00 33 1009.4
20260508173406 59 249 2.6 9.6 0.00 0.00 0.00 33 1009.4
20260508173306 59 248 2.6 9.6 0.00 0.00 0.00 32 1009.4
20260508173206 59 244 2.6 9.6 0.00 0.00 0.00 32 1009.4
20260508173106 59 242 2.6 7.0 0.00 0.00 0.00 32 1009.5
20260508173027 59 243 2.6 7.0 0.00 0.00 0.00 31 1009.5
20260508172927 59 239 2.6 7.0 0.00 0.00 0.00 33 1009.4
20260508172827 59 239 2.6 8.7 0.00 0.00 0.00 32 1009.4
20260508172706 59 237 2.6 8.7 0.00 0.00 0.00 32 1009.5
20260508172606 59 239 2.6 8.7 0.00 0.00 0.00 33 1009.5
20260508172506 59 239 2.6 8.7 0.00 0.00 0.00 32 1009.5
20260508172406 59 237 2.6 8.7 0.00 0.00 0.00 33 1009.5
20260508172307 59 236 2.6 8.7 0.00 0.00 0.00 33 1009.5
20260508172206 58 235 2.6 8.7 0.00 0.00 0.00 33 1009.5
20260508172106 58 232 3.5 8.7 0.00 0.00 0.00 33 1009.5
20260508172006 58 233 3.5 8.7 0.00 0.00 0.00 32 1009.5
20260508171907 59 239 3.5 8.7 0.00 0.00 0.00 30 1009.5
20260508171806 59 239 3.5 8.7 0.00 0.00 0.00 30 1009.6
20260508171706 59 242 2.6 8.7 0.00 0.00 0.00 30 1009.6
20260508171606 59 246 3.5 8.7 0.00 0.00 0.00 30 1009.6
20260508171506 59 250 2.6 8.7 0.00 0.00 0.00 31 1009.6
20260508171406 59 253 3.5 8.7 0.00 0.00 0.00 31 1009.6
20260508171306 59 253 3.5 8.7 0.00 0.00 0.00 31 1009.6
20260508171206 58 257 3.5 8.7 0.00 0.00 0.00 31 1009.6
20260508171106 58 259 3.5 8.7 0.00 0.00 0.00 33 1009.6
20260508171006 58 258 3.5 10.4 0.00 0.00 0.00 33 1009.6
20260508170906 58 255 3.5 10.4 0.00 0.00 0.00 30 1009.7
20260508170806 59 258 4.3 10.4 0.00 0.00 0.00 31 1009.7
20260508170707 59 257 4.3 10.4 0.00 0.00 0.00 31 1009.7
20260508170606 59 257 4.3 10.4 0.00 0.00 0.00 32 1009.7
20260508170506 59 257 5.2 10.4 0.00 0.00 0.00 33 1009.7
20260508170406 59 258 5.2 10.4 0.00 0.00 0.00 33 1009.7
20260508170306 59 257 5.2 10.4 0.00 0.00 0.00 32 1009.8
20260508170227 59 255 5.2 10.4 0.00 0.00 0.00 32 1009.8
20260508170107 59 253 4.3 10.4 0.00 0.00 0.00 31 1009.8
20260508170006 59 248 4.3 10.4 0.00 0.00 0.00 33 1009.9
20260508165906 59 247 4.3 10.4 0.00 0.00 0.00 32 1009.9
20260508165806 59 245 4.3 10.4 0.00 0.00 0.00 32 1009.9
20260508165728 59 244 4.3 10.4 0.00 0.00 0.00 32 1009.9
20260508165607 59 241 3.5 9.6 0.00 0.00 0.00 29 1009.9
20260508165506 59 235 3.5 7.8 0.00 0.00 0.00 32 1009.9
20260508165427 59 235 3.5 7.8 0.00 0.00 0.00 33 1009.9
20260508165307 59 240 3.5 7.8 0.00 0.00 0.00 33 1010.0
20260508165206 59 246 3.5 7.8 0.00 0.00 0.00 33 1010.0
20260508165127 59 247 3.5 7.8 0.00 0.00 0.00 33 1010.1
20260508165027 59 250 3.5 7.8 0.00 0.00 0.00 34 1010.1
20260508164906 59 254 3.5 7.8 0.00 0.00 0.00 33 1010.1
20260508164806 59 254 3.5 7.8 0.00 0.00 0.00 35 1010.2
20260508164706 58 254 4.3 9.6 0.00 0.00 0.00 35 1010.2
20260508164606 58 254 4.3 9.6 0.00 0.00 0.00 35 1010.2
20260508164506 58 257 4.3 9.6 0.00 0.00 0.00 33 1010.2
20260508164406 58 253 3.5 9.6 0.00 0.00 0.00 33 1010.2
20260508164306 59 252 3.5 9.6 0.00 0.00 0.00 34 1010.2
20260508164206 59 251 3.5 9.6 0.00 0.00 0.00 35 1010.2
20260508164106 58 251 4.3 9.6 0.00 0.00 0.00 35 1010.2
20260508164006 58 250 3.5 9.6 0.00 0.00 0.00 37 1010.2
20260508163906 58 251 3.5 9.6 0.00 0.00 0.00 37 1010.2
20260508163827 58 251 3.5 9.6 0.00 0.00 0.00 37 1010.2
20260508163706 58 253 3.5 9.6 0.00 0.00 0.00 35 1010.2
20260508163606 58 252 3.5 9.6 0.00 0.00 0.00 33 1010.2
20260508163527 58 251 3.5 9.6 0.00 0.00 0.00 34 1010.2
20260508163407 58 246 3.5 9.6 0.00 0.00 0.00 34 1010.2
20260508163306 59 244 3.5 9.6 0.00 0.00 0.00 33 1010.2
20260508163206 58 242 3.5 9.6 0.00 0.00 0.00 31 1010.2
20260508163106 59 242 3.5 9.6 0.00 0.00 0.00 32 1010.2
20260508163006 59 240 3.5 8.7 0.00 0.00 0.00 34 1010.3
20260508162927 59 237 3.5 8.7 0.00 0.00 0.00 36 1010.3
20260508162806 58 233 3.5 8.7 0.00 0.00 0.00 37 1010.2
20260508162706 58 233 3.5 8.7 0.00 0.00 0.00 37 1010.2
20260508162606 58 230 3.5 8.7 0.00 0.00 0.00 34 1010.2
20260508162506 58 229 3.5 8.7 0.00 0.00 0.00 33 1010.2
20260508162406 58 231 3.5 8.7 0.00 0.00 0.00 37 1010.2
20260508162307 58 230 3.5 8.7 0.00 0.00 0.00 36 1010.2
20260508162227 58 228 3.5 8.7 0.00 0.00 0.00 37 1010.2
20260508162106 58 229 2.6 8.7 0.00 0.00 0.00 37 1010.2
20260508162006 57 222 3.5 8.7 0.00 0.00 0.00 38 1010.2
20260508161906 57 226 3.5 8.7 0.00 0.00 0.00 40 1010.2
20260508161806 57 223 2.6 8.7 0.00 0.00 0.00 40 1010.2
20260508161706 58 217 2.6 8.7 0.00 0.00 0.00 39 1010.2
20260508161606 58 211 2.6 8.7 0.00 0.00 0.00 40 1010.2
20260508161527 58 209 2.6 8.7 0.00 0.00 0.00 40 1010.1
20260508161427 58 214 2.6 8.7 0.00 0.00 0.00 41 1010.1
20260508161306 57 219 3.5 8.7 0.00 0.00 0.00 42 1010.1
20260508161206 57 223 3.5 8.7 0.00 0.00 0.00 40 1010.2
20260508161107 57 223 4.3 8.7 0.00 0.00 0.00 38 1010.2
20260508161006 57 233 4.3 11.3 0.00 0.00 0.00 36 1010.2
20260508160906 57 237 4.3 11.3 0.00 0.00 0.00 39 1010.2
20260508160806 57 240 4.3 11.3 0.00 0.00 0.00 39 1010.2
20260508160706 57 241 4.3 11.3 0.00 0.00 0.00 37 1010.2
20260508160606 57 242 4.3 11.3 0.00 0.00 0.00 36 1010.3
20260508160506 57 243 3.5 11.3 0.00 0.00 0.00 44 1010.3
20260508160406 57 244 3.5 11.3 0.00 0.00 0.00 44 1010.3
20260508160306 57 243 3.5 11.3 0.00 0.00 0.00 42 1010.3
20260508160206 57 241 3.5 11.3 0.00 0.00 0.00 42 1010.2
20260508160106 57 245 3.5 11.3 0.00 0.00 0.00 43 1010.2
20260508160006 57 241 2.6 10.4 0.00 0.00 0.00 42 1010.2
20260508155906 57 233 2.6 8.7 0.00 0.00 0.00 43 1010.2
20260508155806 58 227 2.6 8.7 0.00 0.00 0.00 45 1010.2
20260508155706 58 228 2.6 8.7 0.00 0.00 0.00 46 1010.2
20260508155606 57 231 2.6 8.7 0.00 0.00 0.00 46 1010.1
20260508155506 57 233 2.6 8.7 0.00 0.00 0.00 46 1010.1
20260508155406 57 233 2.6 8.7 0.00 0.00 0.00 45 1010.1
20260508155306 57 231 3.5 8.7 0.00 0.00 0.00 43 1010.1
20260508155206 57 224 2.6 8.7 0.00 0.00 0.00 43 1010.1
20260508155128 57 221 2.6 7.0 0.00 0.00 0.00 46 1010.2
20260508155006 57 221 2.6 6.1 0.00 0.00 0.00 46 1010.2
20260508154906 57 226 2.6 6.1 0.00 0.00 0.00 47 1010.2
20260508154806 57 227 2.6 6.1 0.00 0.00 0.00 47 1010.2
20260508154727 57 229 2.6 6.1 0.00 0.00 0.00 49 1010.2
20260508154606 57 224 1.7 6.1 0.00 0.00 0.00 52 1010.2
20260508154506 57 218 1.7 6.1 0.00 0.00 0.00 53 1010.2
20260508154406 56 216 1.7 6.1 0.00 0.00 0.00 53 1010.2
20260508154327 56 215 1.7 6.1 0.00 0.00 0.00 52 1010.2
20260508154227 56 234 1.7 6.1 0.00 0.00 0.00 50 1010.2
20260508154106 56 238 2.6 7.8 0.00 0.00 0.00 52 1010.2
20260508154027 56 239 2.6 7.8 0.00 0.00 0.00 52 1010.2
20260508153906 56 240 2.6 7.8 0.00 0.00 0.00 54 1010.2
20260508153806 56 241 2.6 7.8 0.00 0.00 0.00 55 1010.2
20260508153706 56 236 2.6 7.8 0.00 0.00 0.00 56 1010.2
20260508153606 56 236 2.6 7.8 0.00 0.00 0.00 57 1010.2
20260508153506 56 241 2.6 7.8 0.00 0.00 0.00 56 1010.2
20260508153406 56 245 2.6 7.8 0.00 0.00 0.00 55 1010.2
20260508153306 56 244 2.6 7.8 0.00 0.00 0.00 55 1010.2
20260508153206 56 244 1.7 7.8 0.00 0.00 0.00 55 1010.2
20260508153106 56 236 2.6 7.0 0.00 0.00 0.00 57 1010.2
20260508153006 56 224 2.6 7.0 0.00 0.00 0.00 60 1010.2
20260508152906 56 220 2.6 7.0 0.00 0.00 0.00 60 1010.2
20260508152827 56 217 2.6 7.0 0.00 0.00 0.00 60 1010.2
20260508152706 55 227 2.6 7.0 0.00 0.00 0.00 61 1010.2
20260508152606 55 221 2.6 7.0 0.00 0.00 0.00 62 1010.3
20260508152506 55 219 2.6 7.0 0.00 0.00 0.00 62 1010.3
20260508152406 55 215 2.6 7.0 0.00 0.00 0.00 62 1010.3
20260508152307 55 208 2.6 7.0 0.00 0.00 0.00 63 1010.2
20260508152227 55 211 2.6 7.0 0.00 0.00 0.00 63 1010.2
20260508152106 55 216 2.6 7.0 0.00 0.00 0.00 64 1010.2
20260508152006 55 221 2.6 7.0 0.00 0.00 0.00 64 1010.3
20260508151906 55 220 2.6 7.0 0.00 0.00 0.00 63 1010.3
20260508151806 55 221 2.6 7.0 0.00 0.00 0.00 64 1010.4
20260508151706 55 218 2.6 7.0 0.00 0.00 0.00 65 1010.4
20260508151606 55 230 2.6 7.0 0.00 0.00 0.00 65 1010.4
20260508151506 55 231 2.6 7.0 0.00 0.00 0.00 64 1010.4
20260508151427 55 229 2.6 7.0 0.00 0.00 0.00 65 1010.4
20260508151307 55 239 2.6 7.0 0.00 0.00 0.00 65 1010.4
20260508151206 55 242 2.6 7.0 0.00 0.00 0.00 64 1010.3
20260508151127 55 245 2.6 7.0 0.00 0.00 0.00 64 1010.3
20260508151006 55 250 2.6 7.0 0.00 0.00 0.00 65 1010.3
20260508150906 54 249 2.6 7.0 0.00 0.00 0.00 66 1010.3
20260508150806 54 251 2.6 7.0 0.00 0.00 0.00 66 1010.4
20260508150706 54 252 2.6 7.0 0.00 0.00 0.00 66 1010.4
20260508150606 54 248 2.6 7.0 0.00 0.00 0.00 66 1010.4
20260508150506 54 246 2.6 7.0 0.00 0.00 0.00 65 1010.4
20260508150427 54 245 2.6 7.0 0.00 0.00 0.00 65 1010.4
20260508150327 54 243 2.6 7.0 0.00 0.00 0.00 65 1010.4
20260508150206 54 240 2.6 7.8 0.00 0.00 0.00 64 1010.5
20260508150127 54 236 2.6 7.8 0.00 0.00 0.00 66 1010.5
20260508150006 54 225 2.6 7.8 0.00 0.00 0.00 68 1010.4
20260508145907 54 224 2.6 7.8 0.00 0.00 0.00 68 1010.4
20260508145827 54 225 2.6 7.8 0.00 0.00 0.00 68 1010.4
20260508145727 54 222 2.6 7.8 0.00 0.00 0.00 68 1010.4
20260508145605 54 222 2.6 7.8 0.00 0.00 0.00 67 1010.4
20260508145506 54 217 2.6 7.8 0.00 0.00 0.00 68 1010.4
20260508145406 54 219 2.6 7.8 0.00 0.00 0.00 67 1010.5
20260508145307 54 216 2.6 7.8 0.00 0.00 0.00 67 1010.5
20260508145206 54 212 2.6 7.0 0.00 0.00 0.00 66 1010.5
20260508145106 54 212 2.6 7.0 0.00 0.00 0.00 67 1010.5
20260508145006 54 212 2.6 7.0 0.00 0.00 0.00 68 1010.5
20260508144906 54 213 2.6 7.0 0.00 0.00 0.00 67 1010.5
20260508144806 54 203 2.6 7.0 0.00 0.00 0.00 66 1010.5
20260508144706 54 201 2.6 7.0 0.00 0.00 0.00 66 1010.5
20260508144606 54 201 2.6 7.0 0.00 0.00 0.00 65 1010.5
20260508144506 54 209 2.6 6.1 0.00 0.00 0.00 65 1010.5
20260508144427 54 213 2.6 7.0 0.00 0.00 0.00 65 1010.5
20260508144306 54 216 2.6 7.0 0.00 0.00 0.00 66 1010.5
20260508144206 54 215 2.6 7.0 0.00 0.00 0.00 65 1010.5
20260508144106 54 216 2.6 7.0 0.00 0.00 0.00 64 1010.5
20260508144006 54 213 2.6 7.0 0.00 0.00 0.00 64 1010.5
20260508143906 54 216 2.6 7.0 0.00 0.00 0.00 64 1010.5
20260508143806 54 219 2.6 7.0 0.00 0.00 0.00 66 1010.5
20260508143727 54 225 2.6 7.0 0.00 0.00 0.00 67 1010.5
20260508143606 53 230 2.6 7.0 0.00 0.00 0.00 67 1010.4
20260508143527 54 231 2.6 7.0 0.00 0.00 0.00 67 1010.4
20260508143427 54 226 2.6 7.0 0.00 0.00 0.00 67 1010.5
20260508143306 54 228 3.5 7.0 0.00 0.00 0.00 66 1010.5
20260508143206 54 231 3.5 7.0 0.00 0.00 0.00 66 1010.5
20260508143107 54 234 3.5 7.0 0.00 0.00 0.00 66 1010.5
20260508143027 54 238 3.5 7.0 0.00 0.00 0.00 66 1010.5
20260508142906 54 238 3.5 7.0 0.00 0.00 0.00 66 1010.4
20260508142806 54 240 2.6 7.0 0.00 0.00 0.00 65 1010.4
20260508142727 54 241 2.6 7.0 0.00 0.00 0.00 64 1010.4
20260508142606 54 239 2.6 7.0 0.00 0.00 0.00 62 1010.5
20260508142527 54 238 2.6 7.0 0.00 0.00 0.00 63 1010.5
20260508142406 54 238 2.6 7.0 0.00 0.00 0.00 61 1010.4
20260508142327 54 237 2.6 7.0 0.00 0.00 0.00 62 1010.4
20260508142206 54 233 2.6 7.0 0.00 0.00 0.00 62 1010.5
20260508142106 55 225 2.6 7.0 0.00 0.00 0.00 61 1010.5
20260508142006 55 217 2.6 7.0 0.00 0.00 0.00 59 1010.5
20260508141906 55 212 2.6 5.2 0.00 0.00 0.00 60 1010.5
20260508141806 55 216 2.6 5.2 0.00 0.00 0.00 61 1010.5
20260508141727 55 214 2.6 5.2 0.00 0.00 0.00 61 1010.5
20260508141606 55 206 1.7 5.2 0.00 0.00 0.00 62 1010.5
20260508141506 55 193 1.7 5.2 0.00 0.00 0.00 61 1010.5
20260508141406 55 190 1.7 5.2 0.00 0.00 0.00 61 1010.5
20260508141327 55 189 1.7 5.2 0.00 0.00 0.00 61 1010.5
20260508141227 55 192 1.7 5.2 0.00 0.00 0.00 60 1010.5
20260508141106 54 196 1.7 5.2 0.00 0.00 0.00 59 1010.5
20260508141006 55 197 1.7 5.2 0.00 0.00 0.00 59 1010.5
20260508140906 55 205 1.7 5.2 0.00 0.00 0.00 59 1010.5
20260508140806 55 205 1.7 5.2 0.00 0.00 0.00 61 1010.5
20260508140706 54 207 1.7 5.2 0.00 0.00 0.00 61 1010.5
20260508140607 54 207 1.7 5.2 0.00 0.00 0.00 61 1010.5
20260508140506 54 216 1.7 5.2 0.00 0.00 0.00 61 1010.4
20260508140406 54 221 1.7 5.2 0.00 0.00 0.00 61 1010.4
20260508140306 54 225 1.7 5.2 0.00 0.00 0.00 60 1010.5
20260508140206 54 227 1.7 5.2 0.00 0.00 0.00 60 1010.5
20260508140106 54 232 1.7 5.2 0.00 0.00 0.00 59 1010.5
20260508140006 54 236 1.7 5.2 0.00 0.00 0.00 60 1010.5
20260508135906 54 230 1.7 4.3 0.00 0.00 0.00 63 1010.5
20260508135806 54 230 1.7 4.3 0.00 0.00 0.00 64 1010.5
20260508135706 54 228 0.9 4.3 0.00 0.00 0.00 63 1010.5
20260508135605 54 229 1.7 4.3 0.00 0.00 0.00 64 1010.5
20260508135506 54 217 1.7 4.3 0.00 0.00 0.00 63 1010.5
20260508135406 54 208 1.7 4.3 0.00 0.00 0.00 63 1010.5
20260508135306 54 206 0.9 4.3 0.00 0.00 0.00 62 1010.6
20260508135206 54 203 0.9 4.3 0.00 0.00 0.00 61 1010.5
20260508135106 54 203 0.9 4.3 0.00 0.00 0.00 62 1010.5
20260508135005 54 209 0.9 4.3 0.00 0.00 0.00 62 1010.5
20260508134906 54 215 0.9 4.3 0.00 0.00 0.00 63 1010.5
20260508134806 54 208 0.9 4.3 0.00 0.00 0.00 63 1010.5
20260508134706 54 214 0.9 4.3 0.00 0.00 0.00 63 1010.5
20260508134606 54 218 0.9 4.3 0.00 0.00 0.00 63 1010.5
20260508134506 53 218 0.9 4.3 0.00 0.00 0.00 65 1010.5
20260508134406 53 213 1.7 4.3 0.00 0.00 0.00 67 1010.5
20260508134306 53 213 1.7 4.3 0.00 0.00 0.00 66 1010.5
20260508134206 53 226 1.7 7.0 0.00 0.00 0.00 66 1010.5
20260508134106 53 230 1.7 7.0 0.00 0.00 0.00 66 1010.5
20260508134006 53 232 1.7 7.0 0.00 0.00 0.00 67 1010.5
20260508133905 52 237 2.6 7.0 0.00 0.00 0.00 68 1010.5
20260508133806 52 241 2.6 7.0 0.00 0.00 0.00 68 1010.5
20260508133706 52 237 1.7 7.0 0.00 0.00 0.00 68 1010.5
20260508133605 52 238 1.7 7.0 0.00 0.00 0.00 68 1010.5
20260508133526 52 243 1.7 7.0 0.00 0.00 0.00 68 1010.5
20260508133406 52 252 1.7 7.0 0.00 0.00 0.00 68 1010.5
20260508133307 52 254 1.7 7.0 0.00 0.00 0.00 68 1010.5
20260508133226 52 252 1.7 7.0 0.00 0.00 0.00 68 1010.5
20260508133105 52 242 0.9 4.3 0.00 0.00 0.00 68 1010.4
20260508133027 52 242 0.9 4.3 0.00 0.00 0.00 67 1010.4
20260508132906 52 236 0.9 4.3 0.00 0.00 0.00 68 1010.5
20260508132806 52 233 0.9 3.5 0.00 0.00 0.00 68 1010.6
20260508132705 52 237 0.9 3.5 0.00 0.00 0.00 68 1010.6
20260508132606 52 229 0.9 3.5 0.00 0.00 0.00 69 1010.6
20260508132527 52 223 0.9 3.5 0.00 0.00 0.00 69 1010.6
20260508132406 52 223 0.9 3.5 0.00 0.00 0.00 69 1010.6
20260508132306 52 219 0.9 3.5 0.00 0.00 0.00 69 1010.6
20260508132206 51 211 0.9 3.5 0.00 0.00 0.00 69 1010.6
20260508132106 51 216 0.9 3.5 0.00 0.00 0.00 70 1010.6
20260508132006 51 211 0.9 3.5 0.00 0.00 0.00 71 1010.6
20260508131907 51 206 0.9 3.5 0.00 0.00 0.00 72 1010.6
20260508131806 51 211 0.9 3.5 0.00 0.00 0.00 72 1010.6
20260508131706 51 209 0.9 3.5 0.00 0.00 0.00 72 1010.6
20260508131606 51 208 0.9 3.5 0.00 0.00 0.00 72 1010.6
20260508131505 50 213 0.9 3.5 0.00 0.00 0.00 72 1010.6
20260508131406 50 211 0.9 3.5 0.00 0.00 0.00 71 1010.6
20260508131305 50 215 0.9 3.5 0.00 0.00 0.00 72 1010.6
20260508131206 50 221 0.9 3.5 0.00 0.00 0.00 72 1010.6
20260508131127 50 224 0.9 3.5 0.00 0.00 0.00 72 1010.6
20260508131006 50 213 0.9 3.5 0.00 0.00 0.00 73 1010.7
20260508130906 50 213 0.9 3.5 0.00 0.00 0.00 73 1010.7
20260508130806 50 208 0.9 3.5 0.00 0.00 0.00 73 1010.7
20260508130706 50 206 0.9 3.5 0.00 0.00 0.00 73 1010.7
20260508130627 50 206 0.9 3.5 0.00 0.00 0.00 73 1010.7
20260508130505 50 199 0.9 3.5 0.00 0.00 0.00 73 1010.7
20260508130406 49 194 0.9 3.5 0.00 0.00 0.00 73 1010.7
20260508130306 49 189 0.9 3.5 0.00 0.00 0.00 73 1010.7
20260508130206 49 198 0.9 3.5 0.00 0.00 0.00 74 1010.7
20260508130105 49 206 0.9 3.5 0.00 0.00 0.00 74 1010.7
20260508130005 49 215 0.9 3.5 0.00 0.00 0.00 74 1010.7
20260508125906 49 215 0.9 3.5 0.00 0.00 0.00 74 1010.7
20260508125806 49 212 0.9 3.5 0.00 0.00 0.00 75 1010.8
20260508125705 48 216 0.9 3.5 0.00 0.00 0.00 75 1010.8
20260508125626 48 216 0.9 3.5 0.00 0.00 0.00 75 1010.8
20260508125506 48 220 0.9 3.5 0.00 0.00 0.00 76 1010.8
20260508125406 48 233 0.9 3.5 0.00 0.00 0.00 76 1010.8
20260508125306 48 234 0.9 3.5 0.00 0.00 0.00 75 1010.9
20260508125205 48 0 0.0 3.5 0.00 0.00 0.00 77 1010.8
20260508125127 48 0 0.0 2.6 0.00 0.00 0.00 77 1010.8
20260508125027 47 0 0.0 1.7 0.00 0.00 0.00 77 1010.8
20260508124905 47 0 0.0 1.7 0.00 0.00 0.00 77 1010.8
20260508124805 47 0 0.0 1.7 0.00 0.00 0.00 77 1010.8
20260508124705 47 0 0.0 1.7 0.00 0.00 0.00 77 1010.8
20260508124606 47 0 0.0 1.7 0.00 0.00 0.00 78 1010.8
20260508124506 46 0 0.0 1.7 0.00 0.00 0.00 77 1010.8
20260508124406 46 0 0.0 1.7 0.00 0.00 0.00 78 1010.8
20260508124305 46 0 0.0 1.7 0.00 0.00 0.00 78 1010.8
20260508124205 46 0 0.0 1.7 0.00 0.00 0.00 80 1010.8
20260508124106 46 0 0.0 1.7 0.00 0.00 0.00 81 1010.8
20260508124006 46 0 0.0 1.7 0.00 0.00 0.00 79 1010.8
20260508123905 46 0 0.0 1.7 0.00 0.00 0.00 80 1010.8
20260508123805 45 0 0.0 1.7 0.00 0.00 0.00 80 1010.8
20260508123705 45 0 0.0 2.6 0.00 0.00 0.00 80 1010.7
20260508123606 45 0 0.0 2.6 0.00 0.00 0.00 81 1010.7
20260508123505 45 0 0.0 2.6 0.00 0.00 0.00 81 1010.7
20260508123406 44 0 0.0 2.6 0.00 0.00 0.00 82 1010.7
20260508123326 44 0 0.0 2.6 0.00 0.00 0.00 82 1010.7
20260508123206 44 208 0.9 2.6 0.00 0.00 0.00 82 1010.7
20260508123106 44 210 0.9 2.6 0.00 0.00 0.00 83 1010.7
20260508123005 44 0 0.0 2.6 0.00 0.00 0.00 83 1010.8
20260508122906 43 0 0.0 2.6 0.00 0.00 0.00 83 1010.8
20260508122806 43 0 0.0 2.6 0.00 0.00 0.00 84 1010.8
20260508122706 43 0 0.0 1.7 0.00 0.00 0.00 85 1010.8
20260508122627 42 0 0.0 1.7 0.00 0.00 0.00 85 1010.8
20260508122526 42 0 0.0 1.7 0.00 0.00 0.00 85 1010.8
20260508122405 42 0 0.0 1.7 0.00 0.00 0.00 86 1010.7
20260508122307 41 0 0.0 1.7 0.00 0.00 0.00 86 1010.7
20260508122227 41 0 0.0 1.7 0.00 0.00 0.00 86 1010.8
20260508122105 41 0 0.0 0.9 0.00 0.00 0.00 87 1010.7
20260508122005 40 0 0.0 0.9 0.00 0.00 0.00 88 1010.7
20260508121905 40 0 0.0 0.9 0.00 0.00 0.00 88 1010.8
20260508121805 40 0 0.0 0.9 0.00 0.00 0.00 88 1010.8
20260508121706 40 0 0.0 0.9 0.00 0.00 0.00 88 1010.8
20260508121627 40 0 0.0 0.9 0.00 0.00 0.00 88 1010.8
20260508121506 40 0 0.0 0.0 0.00 0.00 0.00 88 1010.7
20260508121405 39 0 0.0 0.0 0.00 0.00 0.00 88 1010.7
20260508121305 39 0 0.0 0.0 0.00 0.00 0.00 88 1010.7
20260508121206 39 0 0.0 0.0 0.00 0.00 0.00 88 1010.6
20260508121106 39 0 0.0 0.9 0.00 0.00 0.00 88 1010.7
20260508121006 39 0 0.0 0.9 0.00 0.00 0.00 88 1010.7
20260508120905 39 0 0.0 0.9 0.00 0.00 0.00 88 1010.7
20260508120806 39 0 0.0 0.9 0.00 0.00 0.00 89 1010.7
20260508120706 39 0 0.0 0.9 0.00 0.00 0.00 89 1010.6
20260508120605 39 0 0.0 0.9 0.00 0.00 0.00 89 1010.6
20260508120506 38 0 0.0 0.9 0.00 0.00 0.00 89 1010.6
20260508120405 38 0 0.0 0.9 0.00 0.00 0.00 90 1010.6
20260508120305 38 0 0.0 0.9 0.00 0.00 0.00 90 1010.6
20260508120205 38 0 0.0 0.9 0.00 0.00 0.00 90 1010.6
20260508120105 38 0 0.0 0.9 0.00 0.00 0.00 90 1010.6
20260508120026 38 0 0.0 0.9 0.00 0.00 0.00 91 1010.6
20260508115905 37 0 0.0 0.9 0.00 0.00 0.00 91 1010.5
20260508115805 37 0 0.0 0.9 0.00 0.00 0.00 92 1010.5
20260508115705 37 0 0.0 0.9 0.00 0.00 0.00 92 1010.5
20260508115605 37 0 0.0 0.9 0.00 0.00 0.00 92 1010.5
20260508115505 36 0 0.0 0.9 0.00 0.00 0.00 93 1010.5
20260508115405 36 0 0.0 0.9 0.00 0.00 0.00 93 1010.5
20260508115306 36 0 0.0 0.9 0.00 0.00 0.00 94 1010.5
20260508115226 36 0 0.0 0.9 0.00 0.00 0.00 94 1010.5
20260508115106 35 0 0.0 0.9 0.00 0.00 0.00 94 1010.5
20260508115006 35 0 0.0 0.9 0.00 0.00 0.00 94 1010.5
20260508114905 35 0 0.0 0.9 0.00 0.00 0.00 94 1010.5
20260508114805 34 0 0.0 0.0 0.00 0.00 0.00 94 1010.5
20260508114726 34 0 0.0 0.0 0.00 0.00 0.00 94 1010.5
20260508114626 34 0 0.0 0.0 0.00 0.00 0.00 94 1010.5
20260508114506 34 0 0.0 0.0 0.00 0.00 0.00 94 1010.5
20260508114405 34 0 0.0 0.0 0.00 0.00 0.00 94 1010.5
20260508114305 34 0 0.0 0.0 0.00 0.00 0.00 94 1010.5
20260508114226 34 0 0.0 0.0 0.00 0.00 0.00 94 1010.5
20260508114105 34 0 0.0 0.0 0.00 0.00 0.00 94 1010.4
20260508114006 34 0 0.0 0.0 0.00 0.00 0.00 94 1010.4
20260508113927 34 0 0.0 0.0 0.00 0.00 0.00 94 1010.4
20260508113805 34 0 0.0 0.0 0.00 0.00 0.00 94 1010.4
20260508113705 33 0 0.0 0.0 0.00 0.00 0.00 94 1010.4
20260508113605 33 0 0.0 0.0 0.00 0.00 0.00 94 1010.4
20260508113505 33 0 0.0 0.0 0.00 0.00 0.00 94 1010.4
20260508113406 33 0 0.0 0.0 0.00 0.00 0.00 94 1010.4
20260508113306 33 0 0.0 0.0 0.00 0.00 0.00 94 1010.4
20260508113205 33 0 0.0 0.0 0.00 0.00 0.00 94 1010.4
20260508113126 33 0 0.0 0.0 0.00 0.00 0.00 94 1010.4
20260508113005 33 0 0.0 0.0 0.00 0.00 0.00 94 1010.3
20260508112905 33 0 0.0 0.0 0.00 0.00 0.00 94 1010.3
20260508112805 32 0 0.0 0.0 0.00 0.00 0.00 94 1010.3
20260508112705 32 0 0.0 0.0 0.00 0.00 0.00 94 1010.3
20260508112605 32 0 0.0 0.0 0.00 0.00 0.00 94 1010.3
20260508112506 32 0 0.0 0.0 0.00 0.00 0.00 94 1010.3
20260508112426 32 0 0.0 0.0 0.00 0.00 0.00 94 1010.3
20260508112307 32 0 0.0 0.0 0.00 0.00 0.00 94 1010.3
20260508112205 32 0 0.0 0.0 0.00 0.00 0.00 94 1010.3
20260508112126 32 0 0.0 0.0 0.00 0.00 0.00 94 1010.3
20260508112005 32 0 0.0 0.0 0.00 0.00 0.00 94 1010.3
20260508111926 32 0 0.0 0.0 0.00 0.00 0.00 94 1010.3
20260508111805 32 0 0.0 0.0 0.00 0.00 0.00 94 1010.3
20260508111705 32 0 0.0 0.0 0.00 0.00 0.00 94 1010.3
20260508111605 32 0 0.0 0.0 0.00 0.00 0.00 94 1010.3
20260508111526 32 0 0.0 0.0 0.00 0.00 0.00 94 1010.3
20260508111405 32 0 0.0 0.0 0.00 0.00 0.00 94 1010.3
20260508111306 32 0 0.0 0.0 0.00 0.00 0.00 94 1010.3
20260508111205 31 0 0.0 0.0 0.00 0.00 0.00 94 1010.3
20260508111126 31 0 0.0 0.0 0.00 0.00 0.00 94 1010.3
20260508111005 31 0 0.0 0.0 0.00 0.00 0.00 94 1010.3
20260508110905 31 0 0.0 0.0 0.00 0.00 0.00 94 1010.3
20260508110805 31 0 0.0 0.0 0.00 0.00 0.00 94 1010.3
20260508110706 31 0 0.0 0.0 0.00 0.00 0.00 94 1010.3
20260508110605 31 0 0.0 0.0 0.00 0.00 0.00 93 1010.3
20260508110505 31 0 0.0 0.0 0.00 0.00 0.00 93 1010.3
20260508110405 31 0 0.0 0.0 0.00 0.00 0.00 93 1010.3
20260508110305 31 0 0.0 0.0 0.00 0.00 0.00 93 1010.3
20260508110205 31 0 0.0 0.0 0.00 0.00 0.00 93 1010.3
20260508110105 31 0 0.0 0.0 0.00 0.00 0.00 93 1010.3
20260508110026 31 0 0.0 0.0 0.00 0.00 0.00 93 1010.2
20260508105905 31 0 0.0 0.0 0.00 0.00 0.00 93 1010.2
20260508105805 31 0 0.0 0.0 0.00 0.00 0.00 93 1010.2
20260508105726 31 0 0.0 0.0 0.00 0.00 0.00 93 1010.2
20260508105626 31 0 0.0 0.0 0.00 0.00 0.00 93 1010.2
20260508105506 31 0 0.0 0.0 0.00 0.00 0.00 93 1010.2
20260508105426 31 0 0.0 0.0 0.00 0.00 0.00 93 1010.2
20260508105306 31 0 0.0 0.0 0.00 0.00 0.00 93 1010.2
20260508105205 31 0 0.0 0.0 0.00 0.00 0.00 93 1010.2
20260508105106 31 0 0.0 0.0 0.00 0.00 0.00 93 1010.2
20260508105006 31 0 0.0 0.0 0.00 0.00 0.00 93 1010.2
20260508104905 31 0 0.0 0.0 0.00 0.00 0.00 93 1010.1
20260508104805 31 0 0.0 0.0 0.00 0.00 0.00 93 1010.1
20260508104726 31 0 0.0 0.0 0.00 0.00 0.00 93 1010.1
20260508104605 31 0 0.0 0.0 0.00 0.00 0.00 93 1010.1
20260508104505 31 0 0.0 0.0 0.00 0.00 0.00 93 1010.1
20260508104405 31 0 0.0 0.0 0.00 0.00 0.00 93 1010.1
20260508104326 31 0 0.0 0.0 0.00 0.00 0.00 93 1010.1
20260508104205 31 0 0.0 0.0 0.00 0.00 0.00 93 1010.2
20260508104105 31 0 0.0 0.0 0.00 0.00 0.00 93 1010.1
20260508104026 31 0 0.0 0.0 0.00 0.00 0.00 93 1010.1
20260508103905 31 0 0.0 0.0 0.00 0.00 0.00 93 1010.1
20260508103805 31 0 0.0 0.0 0.00 0.00 0.00 93 1010.1
20260508103705 31 0 0.0 0.0 0.00 0.00 0.00 93 1010.1
20260508103605 31 0 0.0 0.0 0.00 0.00 0.00 93 1010.1
20260508103505 31 0 0.0 0.0 0.00 0.00 0.00 93 1010.1
20260508103405 31 0 0.0 0.0 0.00 0.00 0.00 93 1010.1
20260508103305 31 0 0.0 0.0 0.00 0.00 0.00 93 1010.1
20260508103206 31 0 0.0 0.0 0.00 0.00 0.00 93 1010.1
20260508103105 31 0 0.0 0.0 0.00 0.00 0.00 93 1010.0
20260508103026 31 0 0.0 0.0 0.00 0.00 0.00 93 1010.0
20260508102905 31 0 0.0 0.0 0.00 0.00 0.00 93 1010.1
20260508102805 31 0 0.0 0.0 0.00 0.00 0.00 93 1010.1
20260508102705 31 0 0.0 0.0 0.00 0.00 0.00 93 1010.1
20260508102605 31 0 0.0 0.0 0.00 0.00 0.00 93 1010.0
20260508102526 31 0 0.0 0.0 0.00 0.00 0.00 93 1010.0
20260508102405 31 0 0.0 0.0 0.00 0.00 0.00 93 1010.0
20260508102327 31 0 0.0 0.0 0.00 0.00 0.00 93 1010.1
20260508102205 31 0 0.0 0.0 0.00 0.00 0.00 93 1010.1
20260508102105 31 0 0.0 0.0 0.00 0.00 0.00 93 1010.1
20260508102026 31 0 0.0 0.0 0.00 0.00 0.00 93 1010.1
20260508101905 31 0 0.0 0.0 0.00 0.00 0.00 93 1010.1
20260508101806 31 0 0.0 0.0 0.00 0.00 0.00 93 1010.1
20260508101706 31 0 0.0 0.0 0.00 0.00 0.00 93 1010.1
20260508101605 31 0 0.0 0.0 0.00 0.00 0.00 93 1010.1
20260508101526 31 0 0.0 0.0 0.00 0.00 0.00 93 1010.1
20260508101405 31 0 0.0 0.0 0.00 0.00 0.00 93 1010.2
20260508101306 31 0 0.0 0.0 0.00 0.00 0.00 93 1010.1
20260508101205 31 0 0.0 0.0 0.00 0.00 0.00 93 1010.1
20260508101126 31 0 0.0 0.0 0.00 0.00 0.00 93 1010.1
20260508101005 31 0 0.0 0.0 0.00 0.00 0.00 93 1010.1
20260508100905 31 0 0.0 0.0 0.00 0.00 0.00 93 1010.1
20260508100806 31 0 0.0 0.0 0.00 0.00 0.00 92 1010.2
20260508100705 31 0 0.0 0.0 0.00 0.00 0.00 92 1010.2
20260508100605 31 0 0.0 0.0 0.00 0.00 0.00 92 1010.2
20260508100505 31 0 0.0 0.0 0.00 0.00 0.00 92 1010.2
20260508100405 31 0 0.0 0.0 0.00 0.00 0.00 92 1010.2
20260508100305 31 0 0.0 0.0 0.00 0.00 0.00 92 1010.2
20260508100205 31 0 0.0 0.0 0.00 0.00 0.00 92 1010.1
20260508100105 32 0 0.0 0.0 0.00 0.00 0.00 92 1010.1
20260508100005 32 0 0.0 0.0 0.00 0.00 0.00 92 1010.2
20260508095905 32 0 0.0 0.0 0.00 0.00 0.00 92 1010.2
20260508095806 32 0 0.0 0.0 0.00 0.00 0.00 92 1010.2
20260508095705 32 0 0.0 0.0 0.00 0.00 0.00 92 1010.2
20260508095605 32 0 0.0 0.0 0.00 0.00 0.00 92 1010.2
20260508095505 32 0 0.0 0.0 0.00 0.00 0.00 92 1010.2
20260508095405 32 0 0.0 0.0 0.00 0.00 0.00 92 1010.2
20260508095307 32 0 0.0 0.0 0.00 0.00 0.00 92 1010.2
20260508095205 32 0 0.0 0.0 0.00 0.00 0.00 92 1010.2
20260508095106 32 0 0.0 0.0 0.00 0.00 0.00 92 1010.2
20260508095005 32 0 0.0 0.0 0.00 0.00 0.00 92 1010.2
20260508094905 32 0 0.0 0.0 0.00 0.00 0.00 92 1010.2
20260508094805 32 0 0.0 0.0 0.00 0.00 0.00 92 1010.2
20260508094705 32 0 0.0 0.0 0.00 0.00 0.00 92 1010.3
20260508094605 32 0 0.0 0.0 0.00 0.00 0.00 92 1010.3
20260508094505 32 0 0.0 0.0 0.00 0.00 0.00 92 1010.3
20260508094405 32 0 0.0 0.0 0.00 0.00 0.00 92 1010.3
20260508094305 32 0 0.0 0.0 0.00 0.00 0.00 92 1010.3
20260508094205 32 0 0.0 0.0 0.00 0.00 0.00 92 1010.3
20260508094105 32 0 0.0 0.0 0.00 0.00 0.00 92 1010.3
20260508094005 32 0 0.0 0.0 0.00 0.00 0.00 92 1010.3
20260508093905 32 0 0.0 0.0 0.00 0.00 0.00 92 1010.3
20260508093805 32 0 0.0 0.0 0.00 0.00 0.00 92 1010.3
20260508093705 32 0 0.0 0.0 0.00 0.00 0.00 92 1010.3
20260508093605 32 0 0.0 0.0 0.00 0.00 0.00 92 1010.3
20260508093505 32 0 0.0 0.0 0.00 0.00 0.00 92 1010.3
20260508093405 32 0 0.0 0.0 0.00 0.00 0.00 92 1010.3
20260508093305 32 0 0.0 0.0 0.00 0.00 0.00 92 1010.3
20260508093226 32 0 0.0 0.0 0.00 0.00 0.00 92 1010.3
20260508093105 32 0 0.0 0.0 0.00 0.00 0.00 92 1010.3
20260508093005 32 0 0.0 0.0 0.00 0.00 0.00 92 1010.3
20260508092906 32 0 0.0 0.0 0.00 0.00 0.00 92 1010.4
20260508092805 32 0 0.0 0.0 0.00 0.00 0.00 92 1010.4
20260508092705 32 0 0.0 0.0 0.00 0.00 0.00 92 1010.4
20260508092605 32 0 0.0 0.0 0.00 0.00 0.00 92 1010.4
20260508092505 32 0 0.0 0.0 0.00 0.00 0.00 92 1010.4
20260508092405 32 0 0.0 0.0 0.00 0.00 0.00 92 1010.4
20260508092312 32 0 0.0 0.0 0.00 0.00 0.00 92 1010.4
20260508092205 32 0 0.0 0.0 0.00 0.00 0.00 92 1010.4
20260508092105 32 0 0.0 0.0 0.00 0.00 0.00 92 1010.4
20260508092005 32 0 0.0 0.0 0.00 0.00 0.00 92 1010.4
20260508091905 32 0 0.0 0.0 0.00 0.00 0.00 92 1010.4
20260508091826 32 0 0.0 0.0 0.00 0.00 0.00 92 1010.4
20260508091705 32 0 0.0 0.0 0.00 0.00 0.00 91 1010.4
20260508091626 32 0 0.0 0.0 0.00 0.00 0.00 91 1010.4
20260508091505 32 0 0.0 0.0 0.00 0.00 0.00 91 1010.4
20260508091405 32 0 0.0 0.0 0.00 0.00 0.00 91 1010.5
20260508091305 32 0 0.0 0.0 0.00 0.00 0.00 91 1010.5
20260508091205 32 0 0.0 0.0 0.00 0.00 0.00 91 1010.5
20260508091126 32 0 0.0 0.0 0.00 0.00 0.00 91 1010.6
20260508091005 32 0 0.0 0.0 0.00 0.00 0.00 91 1010.6
20260508090905 32 0 0.0 0.0 0.00 0.00 0.00 91 1010.5
20260508090805 32 0 0.0 0.0 0.00 0.00 0.00 91 1010.5
20260508090726 32 0 0.0 0.0 0.00 0.00 0.00 91 1010.5
20260508090605 32 0 0.0 0.0 0.00 0.00 0.00 91 1010.5
20260508090506 32 0 0.0 0.0 0.00 0.00 0.00 91 1010.5
20260508090405 32 0 0.0 0.0 0.00 0.00 0.00 91 1010.5
20260508090326 32 0 0.0 0.0 0.00 0.00 0.00 91 1010.5
20260508090226 32 0 0.0 0.0 0.00 0.00 0.00 91 1010.5
20260508090105 32 0 0.0 0.0 0.00 0.00 0.00 91 1010.5
20260508090005 32 0 0.0 0.0 0.00 0.00 0.00 91 1010.6
20260508085905 32 0 0.0 0.0 0.00 0.00 0.00 91 1010.6
20260508085805 32 0 0.0 0.0 0.00 0.00 0.00 91 1010.6
20260508085705 32 0 0.0 0.0 0.00 0.00 0.00 91 1010.6
20260508085626 32 0 0.0 0.0 0.00 0.00 0.00 91 1010.5
20260508085505 32 0 0.0 0.0 0.00 0.00 0.00 91 1010.5
20260508085405 32 0 0.0 0.0 0.00 0.00 0.00 91 1010.5
20260508085307 32 0 0.0 0.0 0.00 0.00 0.00 91 1010.6
20260508085205 32 0 0.0 0.0 0.00 0.00 0.00 91 1010.6
20260508085105 32 0 0.0 0.0 0.00 0.00 0.00 91 1010.5
20260508085026 32 0 0.0 0.0 0.00 0.00 0.00 91 1010.5
20260508084905 32 0 0.0 0.0 0.00 0.00 0.00 90 1010.6
20260508084826 32 0 0.0 0.0 0.00 0.00 0.00 90 1010.6
20260508084705 32 0 0.0 0.0 0.00 0.00 0.00 90 1010.6
20260508084605 32 0 0.0 0.0 0.00 0.00 0.00 90 1010.6
20260508084505 32 0 0.0 0.0 0.00 0.00 0.00 90 1010.6
20260508084405 32 0 0.0 0.0 0.00 0.00 0.00 90 1010.6
20260508084305 32 0 0.0 0.0 0.00 0.00 0.00 90 1010.6
20260508084205 32 0 0.0 0.0 0.00 0.00 0.00 90 1010.6
20260508084105 32 0 0.0 0.0 0.00 0.00 0.00 90 1010.6
20260508084005 33 0 0.0 0.0 0.00 0.00 0.00 90 1010.6
20260508083905 33 0 0.0 0.0 0.00 0.00 0.00 90 1010.6
20260508083805 33 0 0.0 0.0 0.00 0.00 0.00 90 1010.6
20260508083705 33 0 0.0 0.0 0.00 0.00 0.00 90 1010.6
20260508083605 33 0 0.0 0.0 0.00 0.00 0.00 90 1010.6
20260508083505 33 0 0.0 0.0 0.00 0.00 0.00 89 1010.6
20260508083405 33 0 0.0 0.0 0.00 0.00 0.00 89 1010.6
20260508083305 33 0 0.0 0.0 0.00 0.00 0.00 89 1010.6
20260508083205 33 0 0.0 0.0 0.00 0.00 0.00 89 1010.6
20260508083105 33 0 0.0 0.0 0.00 0.00 0.00 89 1010.6
20260508083026 33 0 0.0 0.0 0.00 0.00 0.00 89 1010.6
20260508082926 33 0 0.0 0.0 0.00 0.00 0.00 90 1010.6
20260508082806 33 0 0.0 0.0 0.00 0.00 0.00 90 1010.6
20260508082705 33 0 0.0 0.0 0.00 0.00 0.00 90 1010.6
20260508082605 33 0 0.0 0.0 0.00 0.00 0.00 90 1010.6
20260508082505 33 0 0.0 0.0 0.00 0.00 0.00 89 1010.6
20260508082405 33 0 0.0 0.0 0.00 0.00 0.00 89 1010.6
20260508082306 33 0 0.0 0.0 0.00 0.00 0.00 89 1010.6
20260508082205 33 0 0.0 0.0 0.00 0.00 0.00 89 1010.7
20260508082105 33 0 0.0 0.0 0.00 0.00 0.00 89 1010.7
20260508082005 33 0 0.0 0.0 0.00 0.00 0.00 89 1010.7
20260508081926 33 0 0.0 0.0 0.00 0.00 0.00 89 1010.7
20260508081805 34 0 0.0 0.0 0.00 0.00 0.00 89 1010.7
20260508081726 34 0 0.0 0.0 0.00 0.00 0.00 89 1010.7
20260508081605 34 0 0.0 0.0 0.00 0.00 0.00 89 1010.7
20260508081505 34 0 0.0 0.0 0.00 0.00 0.00 89 1010.6
20260508081405 34 0 0.0 0.0 0.00 0.00 0.00 89 1010.7
20260508081326 34 0 0.0 0.0 0.00 0.00 0.00 89 1010.7
20260508081205 34 0 0.0 0.0 0.00 0.00 0.00 89 1010.7
20260508081105 34 0 0.0 0.0 0.00 0.00 0.00 89 1010.7
20260508081005 34 0 0.0 0.0 0.00 0.00 0.00 89 1010.7
20260508080926 34 0 0.0 0.0 0.00 0.00 0.00 89 1010.8
20260508080805 34 0 0.0 0.0 0.00 0.00 0.00 89 1010.8
20260508080705 34 0 0.0 0.0 0.00 0.00 0.00 89 1010.8
20260508080605 34 0 0.0 0.0 0.00 0.00 0.00 89 1010.8
20260508080526 34 0 0.0 0.0 0.00 0.00 0.00 89 1010.8
20260508080405 34 0 0.0 0.0 0.00 0.00 0.00 89 1010.8
20260508080305 34 0 0.0 0.0 0.00 0.00 0.00 89 1010.8
20260508080205 34 0 0.0 0.0 0.00 0.00 0.00 89 1010.8
20260508080105 34 0 0.0 0.0 0.00 0.00 0.00 89 1010.8
20260508080005 34 0 0.0 0.0 0.00 0.00 0.00 89 1010.8
20260508075905 34 0 0.0 0.0 0.00 0.00 0.00 89 1010.8
20260508075805 34 0 0.0 0.0 0.00 0.00 0.00 89 1010.8
20260508075726 34 0 0.0 0.0 0.00 0.00 0.00 89 1010.8
20260508075605 34 0 0.0 0.0 0.00 0.00 0.00 89 1010.8
20260508075505 34 0 0.0 0.0 0.00 0.00 0.00 89 1010.8
20260508075405 34 0 0.0 0.0 0.00 0.00 0.00 89 1010.7
20260508075326 34 0 0.0 0.0 0.00 0.00 0.00 89 1010.7
20260508075205 34 0 0.0 0.0 0.00 0.00 0.00 88 1010.8
20260508075105 34 0 0.0 0.0 0.00 0.00 0.00 88 1010.8
20260508075005 34 0 0.0 0.0 0.00 0.00 0.00 88 1010.8
20260508074905 34 0 0.0 0.0 0.00 0.00 0.00 88 1010.8
20260508074805 34 0 0.0 0.0 0.00 0.00 0.00 88 1010.8
20260508074705 34 0 0.0 0.0 0.00 0.00 0.00 88 1010.8
20260508074605 34 0 0.0 0.0 0.00 0.00 0.00 88 1010.7
20260508074505 34 0 0.0 0.0 0.00 0.00 0.00 88 1010.7
20260508074405 34 0 0.0 0.0 0.00 0.00 0.00 88 1010.7
20260508074305 34 0 0.0 0.0 0.00 0.00 0.00 88 1010.8
20260508074205 34 0 0.0 0.0 0.00 0.00 0.00 88 1010.8
20260508074126 34 0 0.0 0.0 0.00 0.00 0.00 88 1010.8
20260508074005 34 0 0.0 0.0 0.00 0.00 0.00 88 1010.8
20260508073905 34 0 0.0 0.0 0.00 0.00 0.00 88 1010.8
20260508073805 34 0 0.0 0.0 0.00 0.00 0.00 88 1010.8
20260508073705 34 0 0.0 0.0 0.00 0.00 0.00 88 1010.8
20260508073605 34 0 0.0 0.0 0.00 0.00 0.00 88 1010.8
20260508073505 34 0 0.0 0.0 0.00 0.00 0.00 88 1010.8
20260508073405 35 0 0.0 0.0 0.00 0.00 0.00 88 1010.8
20260508073305 35 0 0.0 0.0 0.00 0.00 0.00 88 1010.8
20260508073205 35 0 0.0 0.0 0.00 0.00 0.00 88 1010.8
20260508073126 35 0 0.0 0.0 0.00 0.00 0.00 88 1010.8
20260508073004 35 0 0.0 0.0 0.00 0.00 0.00 88 1010.8
20260508072905 35 0 0.0 0.0 0.00 0.00 0.00 88 1010.8
20260508072805 35 0 0.0 0.0 0.00 0.00 0.00 88 1010.8
20260508072726 35 0 0.0 0.0 0.00 0.00 0.00 88 1010.8
20260508072605 35 0 0.0 0.0 0.00 0.00 0.00 88 1010.8
20260508072505 35 0 0.0 0.0 0.00 0.00 0.00 88 1010.7
20260508072405 35 0 0.0 0.0 0.00 0.00 0.00 88 1010.7
20260508072307 35 0 0.0 0.0 0.00 0.00 0.00 88 1010.8
20260508072205 35 0 0.0 0.0 0.00 0.00 0.00 88 1010.8
20260508072105 35 0 0.0 0.0 0.00 0.00 0.00 88 1010.7
20260508072005 35 0 0.0 0.0 0.00 0.00 0.00 88 1010.8
20260508071905 35 0 0.0 0.0 0.00 0.00 0.00 88 1010.8
20260508071805 35 0 0.0 0.0 0.00 0.00 0.00 87 1010.8
20260508071705 35 0 0.0 0.0 0.00 0.00 0.00 87 1010.8
20260508071605 35 0 0.0 0.0 0.00 0.00 0.00 87 1010.8
20260508071505 35 0 0.0 0.0 0.00 0.00 0.00 87 1010.8
20260508071405 35 0 0.0 0.0 0.00 0.00 0.00 87 1010.8
20260508071305 35 0 0.0 0.0 0.00 0.00 0.00 87 1010.8
20260508071226 35 0 0.0 0.0 0.00 0.00 0.00 87 1010.8
20260508071105 35 0 0.0 0.0 0.00 0.00 0.00 87 1010.9
20260508071006 35 0 0.0 0.0 0.00 0.00 0.00 87 1010.9
20260508070905 35 0 0.0 0.0 0.00 0.00 0.00 87 1010.9
20260508070804 35 0 0.0 0.0 0.00 0.00 0.00 87 1010.9
20260508070704 35 0 0.0 0.0 0.00 0.00 0.00 87 1010.9
20260508070605 35 0 0.0 0.0 0.00 0.00 0.00 87 1010.9
20260508070505 35 0 0.0 0.0 0.00 0.00 0.00 87 1010.9
20260508070426 35 0 0.0 0.0 0.00 0.00 0.00 87 1010.9
20260508070305 35 0 0.0 0.0 0.00 0.00 0.00 87 1010.9
20260508070204 35 0 0.0 0.0 0.00 0.00 0.00 87 1011.0
20260508070126 35 0 0.0 0.0 0.00 0.00 0.00 87 1011.0
20260508070026 36 0 0.0 0.0 0.00 0.00 0.00 87 1011.0
20260508065905 36 0 0.0 0.0 0.00 0.00 0.00 86 1011.0
20260508065826 36 0 0.0 0.0 0.00 0.00 0.00 86 1011.0
20260508065705 36 0 0.0 0.0 0.00 0.00 0.00 86 1011.1
20260508065626 36 0 0.0 0.0 0.00 0.00 0.00 86 1011.1
20260508065505 36 0 0.0 0.0 0.00 0.00 0.00 86 1011.0
20260508065426 36 0 0.0 0.0 0.00 0.00 0.00 86 1011.0
20260508065307 36 0 0.0 0.0 0.00 0.00 0.00 86 1011.0
20260508065225 36 0 0.0 0.0 0.00 0.00 0.00 86 1011.0
20260508065105 36 0 0.0 0.0 0.00 0.00 0.00 86 1011.0
20260508065026 36 0 0.0 0.0 0.00 0.00 0.00 86 1011.1
20260508064905 36 0 0.0 0.0 0.00 0.00 0.00 86 1011.0
20260508064825 36 0 0.0 0.0 0.00 0.00 0.00 86 1011.0
20260508064705 36 0 0.0 0.0 0.00 0.00 0.00 86 1011.0
20260508064605 36 0 0.0 0.0 0.00 0.00 0.00 86 1011.0
20260508064505 36 0 0.0 0.0 0.00 0.00 0.00 86 1011.0
20260508064405 36 0 0.0 0.0 0.00 0.00 0.00 86 1011.0
20260508064304 36 0 0.0 0.0 0.00 0.00 0.00 86 1011.0
20260508064205 36 0 0.0 0.0 0.00 0.00 0.00 86 1010.9
20260508064105 36 0 0.0 0.0 0.00 0.00 0.00 86 1011.0
20260508064004 36 0 0.0 0.0 0.00 0.00 0.00 86 1011.0
20260508063905 36 0 0.0 0.0 0.00 0.00 0.00 85 1010.9
20260508063806 36 0 0.0 0.0 0.00 0.00 0.00 85 1010.9
20260508063705 36 0 0.0 0.0 0.00 0.00 0.00 85 1011.0
20260508063605 36 0 0.0 0.0 0.00 0.00 0.00 85 1011.0
20260508063505 36 0 0.0 0.0 0.00 0.00 0.00 85 1011.0
20260508063404 36 0 0.0 0.0 0.00 0.00 0.00 85 1011.1
20260508063305 36 0 0.0 0.0 0.00 0.00 0.00 85 1011.1
20260508063205 36 0 0.0 0.0 0.00 0.00 0.00 85 1011.1
20260508063105 36 0 0.0 0.0 0.00 0.00 0.00 85 1011.1
20260508063025 36 0 0.0 0.0 0.00 0.00 0.00 85 1011.1
20260508062926 36 0 0.0 0.0 0.00 0.00 0.00 85 1011.1
20260508062805 36 0 0.0 0.0 0.00 0.00 0.00 85 1011.1
20260508062726 36 0 0.0 0.0 0.00 0.00 0.00 85 1011.1
20260508062626 36 0 0.0 0.0 0.00 0.00 0.00 85 1011.1
20260508062505 36 0 0.0 0.0 0.00 0.00 0.00 85 1011.1
20260508062425 36 0 0.0 0.0 0.00 0.00 0.00 85 1011.1
20260508062306 36 0 0.0 0.0 0.00 0.00 0.00 85 1011.1
20260508062226 36 0 0.0 0.0 0.00 0.00 0.00 85 1011.1
20260508062104 36 0 0.0 0.0 0.00 0.00 0.00 85 1011.1
20260508062005 36 0 0.0 0.0 0.00 0.00 0.00 85 1011.1
20260508061904 36 0 0.0 0.0 0.00 0.00 0.00 86 1011.1
20260508061805 36 0 0.0 0.0 0.00 0.00 0.00 86 1011.1
20260508061705 36 0 0.0 0.0 0.00 0.00 0.00 86 1011.1
20260508061604 36 0 0.0 0.0 0.00 0.00 0.00 86 1011.1
20260508061504 36 0 0.0 0.0 0.00 0.00 0.00 86 1011.1
20260508061405 36 0 0.0 0.0 0.00 0.00 0.00 85 1011.1
20260508061305 36 0 0.0 0.0 0.00 0.00 0.00 85 1011.1
20260508061204 36 0 0.0 0.0 0.00 0.00 0.00 85 1011.1
20260508061105 36 0 0.0 0.0 0.00 0.00 0.00 85 1011.1
20260508061005 36 0 0.0 0.0 0.00 0.00 0.00 85 1011.1
20260508060926 36 0 0.0 0.0 0.00 0.00 0.00 85 1011.1
20260508060805 36 0 0.0 0.0 0.00 0.00 0.00 85 1011.1
20260508060726 36 0 0.0 0.0 0.00 0.00 0.00 85 1011.1
20260508060605 36 0 0.0 0.0 0.00 0.00 0.00 85 1011.2
20260508060505 36 0 0.0 0.0 0.00 0.00 0.00 85 1011.2
20260508060427 36 0 0.0 0.0 0.00 0.00 0.00 85 1011.2
20260508060306 36 0 0.0 0.0 0.00 0.00 0.00 85 1011.2
20260508060205 36 0 0.0 0.0 0.00 0.00 0.00 85 1011.2
20260508060125 36 0 0.0 0.0 0.00 0.00 0.00 85 1011.2
20260508060005 36 0 0.0 0.0 0.00 0.00 0.00 84 1011.2
20260508055905 36 0 0.0 0.0 0.00 0.00 0.00 84 1011.2
20260508055805 36 0 0.0 0.0 0.00 0.00 0.00 84 1011.2
20260508055704 36 0 0.0 0.0 0.00 0.00 0.00 84 1011.2
20260508055604 36 0 0.0 0.0 0.00 0.00 0.00 84 1011.2
20260508055526 36 0 0.0 0.0 0.00 0.00 0.00 84 1011.2
20260508055426 36 0 0.0 0.0 0.00 0.00 0.00 84 1011.3
20260508055326 36 0 0.0 0.0 0.00 0.00 0.00 84 1011.2
20260508055205 36 0 0.0 0.0 0.00 0.00 0.00 84 1011.2
20260508055125 36 0 0.0 0.0 0.00 0.00 0.00 84 1011.2
20260508055005 36 0 0.0 0.0 0.00 0.00 0.00 84 1011.2
20260508054905 36 0 0.0 0.0 0.00 0.00 0.00 83 1011.2
20260508054805 36 0 0.0 0.0 0.00 0.00 0.00 83 1011.2
20260508054705 36 0 0.0 0.0 0.00 0.00 0.00 83 1011.3
20260508054604 36 0 0.0 0.0 0.00 0.00 0.00 83 1011.3
20260508054504 36 0 0.0 0.0 0.00 0.00 0.00 83 1011.3
20260508054405 36 0 0.0 0.0 0.00 0.00 0.00 83 1011.3
20260508054305 36 0 0.0 0.0 0.00 0.00 0.00 82 1011.3
20260508054205 36 0 0.0 0.0 0.00 0.00 0.00 83 1011.3
20260508054105 36 0 0.0 0.0 0.00 0.00 0.00 83 1011.3
20260508054004 36 0 0.0 0.0 0.00 0.00 0.00 83 1011.3
20260508053905 36 0 0.0 0.0 0.00 0.00 0.00 83 1011.3
20260508053805 37 0 0.0 0.0 0.00 0.00 0.00 83 1011.3
20260508053705 37 0 0.0 0.0 0.00 0.00 0.00 83 1011.3
20260508053604 37 0 0.0 0.0 0.00 0.00 0.00 83 1011.3
20260508053504 37 0 0.0 0.0 0.00 0.00 0.00 83 1011.3
20260508053404 37 0 0.0 0.0 0.00 0.00 0.00 83 1011.3
20260508053305 36 0 0.0 0.0 0.00 0.00 0.00 83 1011.3
20260508053205 36 0 0.0 0.0 0.00 0.00 0.00 83 1011.3
20260508053105 36 0 0.0 0.0 0.00 0.00 0.00 83 1011.3
20260508053004 36 0 0.0 0.0 0.00 0.00 0.00 83 1011.3
20260508052904 36 0 0.0 0.0 0.00 0.00 0.00 83 1011.3
20260508052805 36 0 0.0 0.0 0.00 0.00 0.00 83 1011.3
20260508052705 36 0 0.0 0.0 0.00 0.00 0.00 83 1011.3
20260508052605 36 0 0.0 0.0 0.00 0.00 0.00 83 1011.3
20260508052504 36 0 0.0 0.0 0.00 0.00 0.00 83 1011.3
20260508052404 36 0 0.0 0.0 0.00 0.00 0.00 83 1011.3
20260508052307 37 0 0.0 0.0 0.00 0.00 0.00 83 1011.3
20260508052226 37 0 0.0 0.0 0.00 0.00 0.00 83 1011.3
20260508052105 37 0 0.0 0.0 0.00 0.00 0.00 83 1011.3
20260508052005 37 0 0.0 0.0 0.00 0.00 0.00 82 1011.3
20260508051904 37 0 0.0 0.0 0.00 0.00 0.00 82 1011.3
20260508051804 37 0 0.0 0.0 0.00 0.00 0.00 83 1011.3
20260508051704 37 0 0.0 0.0 0.00 0.00 0.00 83 1011.3
20260508051605 37 0 0.0 0.0 0.00 0.00 0.00 83 1011.3
20260508051505 37 0 0.0 0.0 0.00 0.00 0.00 82 1011.3
20260508051404 37 0 0.0 0.0 0.00 0.00 0.00 82 1011.4
20260508051304 37 0 0.0 0.0 0.00 0.00 0.00 82 1011.4
20260508051226 37 0 0.0 0.0 0.00 0.00 0.00 82 1011.4
20260508051105 37 0 0.0 0.0 0.00 0.00 0.00 82 1011.4
20260508051005 37 0 0.0 0.0 0.00 0.00 0.00 82 1011.4
20260508050904 37 0 0.0 0.0 0.00 0.00 0.00 82 1011.5
20260508050825 37 0 0.0 0.0 0.00 0.00 0.00 82 1011.5
20260508050705 37 0 0.0 0.0 0.00 0.00 0.00 82 1011.5
20260508050605 37 0 0.0 0.0 0.00 0.00 0.00 82 1011.5
20260508050505 37 0 0.0 0.0 0.00 0.00 0.00 82 1011.5
20260508050404 37 0 0.0 0.0 0.00 0.00 0.00 82 1011.5
20260508050304 37 0 0.0 0.0 0.00 0.00 0.00 82 1011.5
20260508050205 37 0 0.0 0.0 0.00 0.00 0.00 82 1011.5
20260508050105 37 0 0.0 0.0 0.00 0.00 0.00 82 1011.5
20260508050005 37 0 0.0 0.0 0.00 0.00 0.00 82 1011.5
20260508045905 38 0 0.0 0.0 0.00 0.00 0.00 82 1011.5
20260508045804 38 0 0.0 0.0 0.00 0.00 0.00 82 1011.5
20260508045726 38 0 0.0 0.0 0.00 0.00 0.00 82 1011.5
20260508045605 38 0 0.0 0.0 0.00 0.00 0.00 82 1011.6
20260508045505 38 0 0.0 0.0 0.00 0.00 0.00 82 1011.6
20260508045404 38 0 0.0 0.0 0.00 0.00 0.00 81 1011.6
20260508045307 38 0 0.0 0.0 0.00 0.00 0.00 81 1011.6
20260508045205 38 0 0.0 0.0 0.00 0.00 0.00 81 1011.6
20260508045104 38 0 0.0 0.0 0.00 0.00 0.00 81 1011.5
20260508045004 38 0 0.0 0.0 0.00 0.00 0.00 81 1011.5
20260508044904 38 0 0.0 0.0 0.00 0.00 0.00 81 1011.5
20260508044804 38 0 0.0 0.0 0.00 0.00 0.00 81 1011.5
20260508044726 38 0 0.0 0.0 0.00 0.00 0.00 81 1011.5
20260508044605 38 0 0.0 0.0 0.00 0.00 0.00 81 1011.5
20260508044505 38 0 0.0 0.0 0.00 0.00 0.00 81 1011.5
20260508044404 38 0 0.0 0.0 0.00 0.00 0.00 81 1011.5
20260508044304 38 0 0.0 0.0 0.00 0.00 0.00 81 1011.5
20260508044226 38 0 0.0 0.0 0.00 0.00 0.00 81 1011.5
20260508044104 38 0 0.0 0.0 0.00 0.00 0.00 80 1011.5
20260508044005 38 0 0.0 0.0 0.00 0.00 0.00 80 1011.5
20260508043925 38 0 0.0 0.0 0.00 0.00 0.00 80 1011.5
20260508043804 38 0 0.0 0.0 0.00 0.00 0.00 80 1011.4
20260508043705 38 0 0.0 0.0 0.00 0.00 0.00 80 1011.4
20260508043604 38 0 0.0 0.0 0.00 0.00 0.00 79 1011.4
20260508043504 38 0 0.0 0.0 0.00 0.00 0.00 79 1011.4
20260508043425 38 0 0.0 0.0 0.00 0.00 0.00 79 1011.4
20260508043325 38 0 0.0 0.0 0.00 0.00 0.00 79 1011.4
20260508043205 38 0 0.0 0.0 0.00 0.00 0.00 79 1011.4
20260508043104 39 0 0.0 0.0 0.00 0.00 0.00 79 1011.4
20260508043004 39 0 0.0 0.0 0.00 0.00 0.00 79 1011.4
20260508042925 39 0 0.0 0.0 0.00 0.00 0.00 79 1011.4
20260508042805 39 0 0.0 0.0 0.00 0.00 0.00 79 1011.4
20260508042704 39 0 0.0 0.0 0.00 0.00 0.00 78 1011.4
20260508042604 39 0 0.0 0.0 0.00 0.00 0.00 78 1011.4
20260508042504 39 0 0.0 0.0 0.00 0.00 0.00 78 1011.3
20260508042404 39 0 0.0 0.0 0.00 0.00 0.00 78 1011.3
20260508042307 39 0 0.0 0.0 0.00 0.00 0.00 78 1011.3
20260508042204 39 0 0.0 0.0 0.00 0.00 0.00 78 1011.3
20260508042105 39 0 0.0 0.0 0.00 0.00 0.00 78 1011.2
20260508042004 39 0 0.0 0.0 0.00 0.00 0.00 78 1011.2
20260508041925 39 0 0.0 0.0 0.00 0.00 0.00 78 1011.3
20260508041804 39 0 0.0 0.0 0.00 0.00 0.00 77 1011.3
20260508041705 39 0 0.0 0.0 0.00 0.00 0.00 77 1011.3
20260508041605 40 0 0.0 0.0 0.00 0.00 0.00 77 1011.3
20260508041505 40 0 0.0 0.0 0.00 0.00 0.00 77 1011.3
20260508041404 40 0 0.0 0.0 0.00 0.00 0.00 77 1011.3
20260508041326 40 0 0.0 0.0 0.00 0.00 0.00 77 1011.3
20260508041204 40 0 0.0 0.0 0.00 0.00 0.00 77 1011.3
20260508041104 40 0 0.0 0.0 0.00 0.00 0.00 77 1011.3
20260508041004 40 0 0.0 0.0 0.00 0.00 0.00 77 1011.3
20260508040925 40 0 0.0 0.0 0.00 0.00 0.00 77 1011.3
20260508040804 40 0 0.0 0.0 0.00 0.00 0.00 77 1011.2
20260508040704 40 0 0.0 0.0 0.00 0.00 0.00 77 1011.2
20260508040626 40 0 0.0 0.0 0.00 0.00 0.00 77 1011.3
20260508040504 40 0 0.0 0.0 0.00 0.00 0.00 77 1011.3
20260508040404 40 0 0.0 0.0 0.00 0.00 0.00 76 1011.2
20260508040305 40 0 0.0 0.0 0.00 0.00 0.00 76 1011.2
20260508040204 40 0 0.0 0.0 0.00 0.00 0.00 76 1011.2
20260508040104 40 0 0.0 0.0 0.00 0.00 0.00 76 1011.2
20260508040028 40 0 0.0 0.0 0.00 0.00 0.00 76 1011.2
20260508035904 40 0 0.0 0.0 0.00 0.00 0.00 76 1011.2
20260508035826 40 0 0.0 0.0 0.00 0.00 0.00 76 1011.2
20260508035704 40 0 0.0 0.0 0.00 0.00 0.00 75 1011.2
20260508035604 40 0 0.0 0.0 0.00 0.00 0.00 75 1011.2
20260508035504 40 0 0.0 0.0 0.00 0.00 0.00 76 1011.2
20260508035404 40 0 0.0 0.0 0.00 0.00 0.00 76 1011.2
20260508035306 40 0 0.0 0.0 0.00 0.00 0.00 76 1011.2
20260508035205 40 0 0.0 0.0 0.00 0.00 0.00 75 1011.3
20260508035104 40 0 0.0 0.0 0.00 0.00 0.00 75 1011.2
20260508035025 40 0 0.0 0.0 0.00 0.00 0.00 75 1011.2
20260508034925 40 0 0.0 0.0 0.00 0.00 0.00 75 1011.2
20260508034804 40 0 0.0 0.0 0.00 0.00 0.00 75 1011.2
20260508034704 40 0 0.0 0.0 0.00 0.00 0.00 75 1011.2
20260508034605 40 0 0.0 0.0 0.00 0.00 0.00 75 1011.2
20260508034505 41 0 0.0 0.0 0.00 0.00 0.00 75 1011.2
20260508034404 41 0 0.0 0.0 0.00 0.00 0.00 75 1011.2
20260508034306 41 0 0.0 0.0 0.00 0.00 0.00 75 1011.2
20260508034226 41 0 0.0 0.0 0.00 0.00 0.00 75 1011.2
20260508034125 41 0 0.0 0.0 0.00 0.00 0.00 75 1011.2
20260508034004 41 0 0.0 0.0 0.00 0.00 0.00 75 1011.1
20260508033925 41 0 0.0 0.0 0.00 0.00 0.00 75 1011.2
20260508033804 41 0 0.0 0.0 0.00 0.00 0.00 75 1011.2
20260508033704 41 0 0.0 0.0 0.00 0.00 0.00 74 1011.2
20260508033604 41 0 0.0 0.0 0.00 0.00 0.00 74 1011.2
20260508033504 41 0 0.0 0.0 0.00 0.00 0.00 74 1011.2
20260508033425 41 0 0.0 0.0 0.00 0.00 0.00 74 1011.1
20260508033304 41 0 0.0 0.0 0.00 0.00 0.00 74 1011.1
20260508033204 41 0 0.0 0.0 0.00 0.00 0.00 74 1011.1
20260508033104 41 0 0.0 0.0 0.00 0.00 0.00 74 1011.1
20260508033004 41 0 0.0 0.0 0.00 0.00 0.00 73 1011.1
20260508032905 41 0 0.0 0.0 0.00 0.00 0.00 74 1011.1
20260508032805 41 0 0.0 0.0 0.00 0.00 0.00 74 1011.1
20260508032705 41 0 0.0 0.0 0.00 0.00 0.00 73 1011.1
20260508032604 41 0 0.0 0.0 0.00 0.00 0.00 73 1011.1
20260508032504 41 0 0.0 0.0 0.00 0.00 0.00 74 1011.1
20260508032404 41 0 0.0 0.0 0.00 0.00 0.00 74 1011.1
20260508032306 41 0 0.0 0.0 0.00 0.00 0.00 74 1011.1
20260508032204 41 0 0.0 0.0 0.00 0.00 0.00 73 1011.1
20260508032125 41 0 0.0 0.0 0.00 0.00 0.00 73 1011.1
20260508032004 41 0 0.0 0.0 0.00 0.00 0.00 73 1011.1
20260508031904 41 0 0.0 0.0 0.00 0.00 0.00 73 1011.1
20260508031804 41 0 0.0 0.0 0.00 0.00 0.00 73 1011.1
20260508031704 41 0 0.0 0.0 0.00 0.00 0.00 73 1011.1
20260508031604 41 0 0.0 0.0 0.00 0.00 0.00 73 1011.1
20260508031525 41 0 0.0 0.0 0.00 0.00 0.00 72 1011.1
20260508031404 41 0 0.0 0.0 0.00 0.00 0.00 72 1011.1
20260508031325 41 0 0.0 0.0 0.00 0.00 0.00 73 1011.0
20260508031204 42 0 0.0 0.0 0.00 0.00 0.00 73 1011.0
20260508031104 42 0 0.0 0.0 0.00 0.00 0.00 73 1011.0
20260508031004 42 0 0.0 0.0 0.00 0.00 0.00 72 1011.1
20260508030904 42 0 0.0 0.0 0.00 0.00 0.00 72 1011.1
20260508030825 42 0 0.0 0.0 0.00 0.00 0.00 72 1011.1
20260508030704 42 0 0.0 0.0 0.00 0.00 0.00 72 1011.1
20260508030604 42 0 0.0 0.0 0.00 0.00 0.00 73 1011.1
20260508030504 42 0 0.0 0.0 0.00 0.00 0.00 73 1011.0
20260508030425 42 0 0.0 0.0 0.00 0.00 0.00 73 1011.0
20260508030304 42 0 0.0 0.0 0.00 0.00 0.00 72 1011.1
20260508030204 42 0 0.0 0.0 0.00 0.00 0.00 73 1011.1
20260508030125 42 0 0.0 0.0 0.00 0.00 0.00 73 1011.1
20260508030025 42 0 0.0 0.0 0.00 0.00 0.00 72 1011.1
20260508025905 42 0 0.0 0.0 0.00 0.00 0.00 73 1011.1
20260508025804 42 0 0.0 0.0 0.00 0.00 0.00 73 1011.1
20260508025704 42 0 0.0 0.0 0.00 0.00 0.00 73 1011.1
20260508025604 42 0 0.0 0.0 0.00 0.00 0.00 73 1011.1
20260508025525 42 0 0.0 0.0 0.00 0.00 0.00 73 1011.1
20260508025404 42 0 0.0 0.0 0.00 0.00 0.00 73 1011.1
20260508025306 42 0 0.0 0.0 0.00 0.00 0.00 73 1011.1
20260508025204 42 0 0.0 0.0 0.00 0.00 0.00 72 1011.2
20260508025104 42 0 0.0 0.0 0.00 0.00 0.00 72 1011.2
20260508025025 42 0 0.0 0.0 0.00 0.00 0.00 72 1011.1
20260508024904 42 0 0.0 0.0 0.00 0.00 0.00 72 1011.2
20260508024804 42 0 0.0 0.0 0.00 0.00 0.00 71 1011.2
20260508024704 42 0 0.0 0.0 0.00 0.00 0.00 71 1011.2
20260508024604 42 0 0.0 0.0 0.00 0.00 0.00 71 1011.2
20260508024504 42 0 0.0 0.0 0.00 0.00 0.00 71 1011.2
20260508024425 42 0 0.0 0.0 0.00 0.00 0.00 71 1011.2
20260508024304 42 0 0.0 0.0 0.00 0.00 0.00 70 1011.1
20260508024204 42 0 0.0 0.0 0.00 0.00 0.00 70 1011.1
20260508024104 42 0 0.0 0.0 0.00 0.00 0.00 70 1011.1
20260508024004 42 0 0.0 0.0 0.00 0.00 0.00 70 1011.1
20260508023904 42 0 0.0 0.0 0.00 0.00 0.00 70 1011.1
20260508023804 42 0 0.0 0.0 0.00 0.00 0.00 70 1011.1
20260508023704 42 0 0.0 0.0 0.00 0.00 0.00 70 1011.1
20260508023604 42 0 0.0 0.0 0.00 0.00 0.00 70 1011.1
20260508023525 42 0 0.0 0.0 0.00 0.00 0.00 70 1011.1
20260508023405 42 0 0.0 0.0 0.00 0.00 0.00 70 1011.1
20260508023325 42 0 0.0 0.0 0.00 0.00 0.00 70 1011.1
20260508023204 42 0 0.0 0.0 0.00 0.00 0.00 69 1011.1
20260508023125 42 0 0.0 0.0 0.00 0.00 0.00 69 1011.1
20260508023004 42 0 0.0 0.0 0.00 0.00 0.00 69 1011.1
20260508022904 42 0 0.0 0.0 0.00 0.00 0.00 69 1011.0
20260508022804 42 0 0.0 0.0 0.00 0.00 0.00 69 1011.0
20260508022704 42 0 0.0 0.0 0.00 0.00 0.00 69 1011.0
20260508022604 42 0 0.0 0.0 0.00 0.00 0.00 68 1011.0
20260508022504 42 0 0.0 0.0 0.00 0.00 0.00 67 1011.0
20260508022426 43 0 0.0 0.0 0.00 0.00 0.00 67 1011.0
20260508022307 43 0 0.0 0.0 0.00 0.00 0.00 67 1011.0
20260508022225 43 0 0.0 0.0 0.00 0.00 0.00 67 1010.9
20260508022104 43 0 0.0 0.0 0.00 0.00 0.00 67 1010.9
20260508022004 43 0 0.0 0.0 0.00 0.00 0.00 67 1010.9
20260508021925 43 0 0.0 0.0 0.00 0.00 0.00 67 1010.9
20260508021804 43 0 0.0 0.0 0.00 0.00 0.00 67 1010.9
20260508021704 43 0 0.0 0.0 0.00 0.00 0.00 67 1010.9
20260508021604 43 0 0.0 0.0 0.00 0.00 0.00 67 1010.9
20260508021504 43 0 0.0 0.0 0.00 0.00 0.00 67 1010.9
20260508021405 43 0 0.0 0.0 0.00 0.00 0.00 67 1010.9
20260508021325 43 0 0.0 0.0 0.00 0.00 0.00 66 1010.9
20260508021205 43 0 0.0 0.0 0.00 0.00 0.00 67 1010.8
20260508021125 43 0 0.0 0.0 0.00 0.00 0.00 67 1010.8
20260508021004 43 0 0.0 0.0 0.00 0.00 0.00 66 1010.8
20260508020904 43 0 0.0 0.0 0.00 0.00 0.00 66 1010.8
20260508020804 43 0 0.0 0.0 0.00 0.00 0.00 66 1010.8
20260508020704 44 0 0.0 0.0 0.00 0.00 0.00 66 1010.8
20260508020604 44 0 0.0 0.0 0.00 0.00 0.00 66 1010.8
20260508020504 44 0 0.0 0.0 0.00 0.00 0.00 66 1010.8
20260508020404 44 0 0.0 0.0 0.00 0.00 0.00 66 1010.8
20260508020305 44 0 0.0 0.0 0.00 0.00 0.00 66 1010.8
20260508020204 44 0 0.0 0.0 0.00 0.00 0.00 66 1010.8
20260508020125 44 0 0.0 0.0 0.00 0.00 0.00 66 1010.7
20260508020004 44 0 0.0 0.0 0.00 0.00 0.00 66 1010.7
20260508015925 44 0 0.0 0.0 0.00 0.00 0.00 66 1010.7
20260508015804 44 0 0.0 0.0 0.00 0.00 0.00 66 1010.7
20260508015704 44 0 0.0 0.0 0.00 0.00 0.00 65 1010.7
20260508015604 44 0 0.0 0.0 0.00 0.00 0.00 65 1010.7
20260508015505 44 0 0.0 0.0 0.00 0.00 0.00 66 1010.7
20260508015404 44 0 0.0 0.0 0.00 0.00 0.00 66 1010.7
20260508015306 44 0 0.0 0.0 0.00 0.00 0.00 65 1010.7
20260508015204 44 0 0.0 0.0 0.00 0.00 0.00 65 1010.7
20260508015104 44 0 0.0 0.0 0.00 0.00 0.00 65 1010.7
20260508015004 44 0 0.0 0.0 0.00 0.00 0.00 66 1010.7
20260508014904 44 0 0.0 0.0 0.00 0.00 0.00 66 1010.7
20260508014825 44 0 0.0 0.0 0.00 0.00 0.00 66 1010.7
20260508014725 44 0 0.0 0.0 0.00 0.00 0.00 66 1010.7
20260508014604 44 0 0.0 0.0 0.00 0.00 0.00 66 1010.6
20260508014525 44 0 0.0 0.0 0.00 0.00 0.00 66 1010.6
20260508014404 45 0 0.0 0.0 0.00 0.00 0.00 65 1010.6
20260508014304 45 0 0.0 0.0 0.00 0.00 0.00 65 1010.6
20260508014204 45 0 0.0 0.0 0.00 0.00 0.00 64 1010.5
20260508014125 45 0 0.0 0.0 0.00 0.00 0.00 64 1010.5
20260508014004 45 0 0.0 0.0 0.00 0.00 0.00 64 1010.5
20260508013904 45 0 0.0 0.0 0.00 0.00 0.00 64 1010.5
20260508013804 45 0 0.0 0.0 0.00 0.00 0.00 64 1010.5
20260508013725 45 0 0.0 0.0 0.00 0.00 0.00 64 1010.5
20260508013604 45 0 0.0 0.0 0.00 0.00 0.00 63 1010.5
20260508013504 45 0 0.0 0.0 0.00 0.00 0.00 63 1010.5
20260508013404 45 0 0.0 0.0 0.00 0.00 0.00 63 1010.5
20260508013304 45 0 0.0 0.0 0.00 0.00 0.00 62 1010.4
20260508013205 45 0 0.0 0.0 0.00 0.00 0.00 62 1010.4
20260508013125 46 0 0.0 0.0 0.00 0.00 0.00 62 1010.4
20260508013004 46 0 0.0 0.0 0.00 0.00 0.00 62 1010.4
20260508012904 46 0 0.0 0.0 0.00 0.00 0.00 62 1010.4
20260508012825 46 0 0.0 0.0 0.00 0.00 0.00 62 1010.4
20260508012704 46 0 0.0 0.0 0.00 0.00 0.00 62 1010.3
20260508012625 46 0 0.0 0.0 0.00 0.00 0.00 62 1010.3
20260508012504 46 0 0.0 0.0 0.00 0.00 0.00 61 1010.3
20260508012404 46 0 0.0 0.0 0.00 0.00 0.00 62 1010.3
20260508012307 46 0 0.0 0.0 0.00 0.00 0.00 62 1010.3
20260508012204 46 0 0.0 0.0 0.00 0.00 0.00 61 1010.3
20260508012104 46 0 0.0 0.0 0.00 0.00 0.00 61 1010.3
20260508012004 46 0 0.0 0.0 0.00 0.00 0.00 61 1010.3
20260508011904 46 0 0.0 0.0 0.00 0.00 0.00 61 1010.3
20260508011804 46 0 0.0 0.0 0.00 0.00 0.00 60 1010.3
20260508011704 47 0 0.0 0.0 0.00 0.00 0.00 60 1010.2
20260508011604 47 0 0.0 0.0 0.00 0.00 0.00 60 1010.2
20260508011504 47 0 0.0 0.0 0.00 0.00 0.00 58 1010.2
20260508011404 47 0 0.0 0.0 0.00 0.00 0.00 58 1010.2
20260508011325 47 0 0.0 0.0 0.00 0.00 0.00 58 1010.2
20260508011204 47 0 0.0 0.0 0.00 0.00 0.00 58 1010.2
20260508011125 47 0 0.0 0.0 0.00 0.00 0.00 58 1010.2
20260508011004 47 0 0.0 0.0 0.00 0.00 0.00 58 1010.2
20260508010904 47 0 0.0 0.0 0.00 0.00 0.00 57 1010.2
20260508010825 47 0 0.0 0.0 0.00 0.00 0.00 57 1010.2
20260508010705 48 0 0.0 0.0 0.00 0.00 0.00 57 1010.2
20260508010604 48 0 0.0 0.0 0.00 0.00 0.00 57 1010.2
20260508010504 48 0 0.0 0.0 0.00 0.00 0.00 57 1010.2
20260508010404 48 0 0.0 0.0 0.00 0.00 0.00 57 1010.2
20260508010304 48 0 0.0 0.0 0.00 0.00 0.00 57 1010.2
20260508010204 48 0 0.0 0.0 0.00 0.00 0.00 56 1010.1
20260508010125 48 0 0.0 0.0 0.00 0.00 0.00 56 1010.1
20260508010004 48 0 0.0 0.0 0.00 0.00 0.00 56 1010.1
20260508005904 48 0 0.0 0.0 0.00 0.00 0.00 56 1010.1
20260508005804 48 0 0.0 0.0 0.00 0.00 0.00 56 1010.1
20260508005704 48 0 0.0 0.0 0.00 0.00 0.00 55 1010.1
20260508005604 48 0 0.0 0.0 0.00 0.00 0.00 55 1010.1
20260508005504 48 0 0.0 0.0 0.00 0.00 0.00 55 1010.1
20260508005425 48 0 0.0 0.0 0.00 0.00 0.00 55 1010.1
20260508005306 48 0 0.0 0.0 0.00 0.00 0.00 55 1010.1
20260508005204 48 0 0.0 0.0 0.00 0.00 0.00 55 1010.1
20260508005104 48 0 0.0 0.0 0.00 0.00 0.00 54 1010.0
20260508005004 48 0 0.0 0.0 0.00 0.00 0.00 54 1010.0
20260508004904 48 0 0.0 0.0 0.00 0.00 0.00 54 1010.1
20260508004804 49 0 0.0 0.0 0.00 0.00 0.00 55 1010.1
20260508004725 49 0 0.0 0.0 0.00 0.00 0.00 54 1010.1
20260508004604 49 0 0.0 0.0 0.00 0.00 0.00 54 1010.0
20260508004504 49 0 0.0 0.0 0.00 0.00 0.00 54 1010.0
20260508004404 49 0 0.0 0.0 0.00 0.00 0.00 54 1010.0
20260508004304 49 0 0.0 0.0 0.00 0.00 0.00 53 1009.9
20260508004204 49 0 0.0 0.0 0.00 0.00 0.00 53 1009.9
20260508004104 49 0 0.0 0.0 0.00 0.00 0.00 53 1009.9
20260508004025 49 0 0.0 0.0 0.00 0.00 0.00 53 1009.9
20260508003904 49 0 0.0 0.0 0.00 0.00 0.00 53 1009.9
20260508003825 49 0 0.0 0.0 0.00 0.00 0.00 53 1009.9
20260508003704 49 0 0.0 0.0 0.00 0.00 0.00 54 1009.9
20260508003604 49 0 0.0 0.0 0.00 0.00 0.00 54 1009.9
20260508003504 49 0 0.0 0.0 0.00 0.00 0.00 54 1009.9
20260508003404 49 0 0.0 0.0 0.00 0.00 0.00 53 1009.9
20260508003304 50 0 0.0 0.0 0.00 0.00 0.00 53 1009.9
20260508003204 50 0 0.0 0.0 0.00 0.00 0.00 53 1009.9
20260508003126 50 0 0.0 0.0 0.00 0.00 0.00 52 1009.9
20260508003026 50 0 0.0 0.0 0.00 0.00 0.00 52 1009.9
20260508002904 50 0 0.0 0.0 0.00 0.00 0.00 53 1009.9
20260508002804 50 0 0.0 0.0 0.00 0.00 0.00 53 1009.9
20260508002704 50 0 0.0 0.0 0.00 0.00 0.00 52 1009.9
20260508002625 50 0 0.0 0.0 0.00 0.00 0.00 52 1009.9
20260508002504 50 0 0.0 0.0 0.00 0.00 0.00 52 1009.9
20260508002404 50 0 0.0 0.0 0.00 0.00 0.00 52 1009.9
20260508002306 50 0 0.0 0.0 0.00 0.00 0.00 52 1009.9
20260508002225 50 0 0.0 0.0 0.00 0.00 0.00 51 1009.9
20260508002104 50 0 0.0 0.0 0.00 0.00 0.00 52 1010.0
20260508002004 50 0 0.0 0.0 0.00 0.00 0.00 51 1009.9
20260508001904 50 0 0.0 0.0 0.00 0.00 0.00 50 1009.9
20260508001804 51 0 0.0 0.0 0.00 0.00 0.00 50 1009.9
20260508001704 51 0 0.0 0.0 0.00 0.00 0.00 50 1009.9
20260508001604 51 0 0.0 0.0 0.00 0.00 0.00 50 1009.9
20260508001525 51 0 0.0 0.0 0.00 0.00 0.00 50 1009.9
20260508001404 51 0 0.0 0.0 0.00 0.00 0.00 50 1009.9
20260508001304 51 0 0.0 0.9 0.00 0.00 0.00 49 1009.9
20260508001204 51 0 0.0 0.9 0.00 0.00 0.00 49 1009.9
20260508001104 51 0 0.0 0.9 0.00 0.00 0.00 49 1009.9
20260508001004 51 0 0.0 0.9 0.00 0.00 0.00 49 1009.9
20260508000904 51 0 0.0 0.9 0.00 0.00 0.00 49 1009.9
20260508000804 51 0 0.0 0.9 0.00 0.00 0.00 49 1009.9
20260508000704 51 0 0.0 0.9 0.00 0.00 0.00 49 1009.9
20260508000604 51 0 0.0 0.9 0.00 0.00 0.00 49 1009.9
20260508000505 51 0 0.0 0.9 0.00 0.00 0.00 49 1009.9
20260508000427 51 0 0.0 0.9 0.00 0.00 0.00 48 1009.9
20260508000305 51 0 0.0 0.9 0.00 0.00 0.00 48 1009.9
20260508000205 51 0 0.0 2.6 0.00 0.00 0.00 48 1010.0
20260508000104 51 0 0.0 2.6 0.00 0.00 0.00 49 1010.0
20260508000025 51 0 0.0 2.6 0.00 0.00 0.00 49 1010.0
20260507235904 51 281 0.9 2.6 0.00 0.00 0.00 49 1010.0
20260507235825 51 282 0.9 2.6 0.00 0.00 0.00 49 1010.0
20260507235725 51 278 0.9 2.6 0.00 0.00 0.00 49 1010.0
20260507235604 51 278 0.9 2.6 0.00 0.00 0.00 49 1010.0
20260507235525 51 277 0.9 2.6 0.00 0.00 0.00 49 1010.1
20260507235404 51 278 0.9 2.6 0.00 0.00 0.00 48 1010.0
20260507235306 51 279 0.9 2.6 0.00 0.00 0.00 48 1010.0
20260507235204 51 278 0.9 1.7 0.00 0.00 0.00 48 1010.1
20260507235104 52 276 0.9 1.7 0.00 0.00 0.00 48 1010.1
20260507235004 52 0 0.0 1.7 0.00 0.00 0.00 48 1010.0
20260507234925 52 0 0.0 1.7 0.00 0.00 0.00 47 1010.0
20260507234804 52 0 0.0 1.7 0.00 0.00 0.00 47 1010.0
20260507234704 52 0 0.0 1.7 0.00 0.00 0.00 47 1010.0
20260507234604 52 0 0.0 1.7 0.00 0.00 0.00 48 1010.0
20260507234504 52 0 0.0 0.9 0.00 0.00 0.00 47 1010.0
20260507234404 52 0 0.0 1.7 0.00 0.00 0.00 47 1010.1
20260507234325 52 0 0.0 1.7 0.00 0.00 0.00 46 1010.1
20260507234204 52 0 0.0 1.7 0.00 0.00 0.00 46 1010.0
20260507234104 52 0 0.0 1.7 0.00 0.00 0.00 45 1010.1
20260507234004 53 0 0.0 1.7 0.00 0.00 0.00 45 1010.1
20260507233925 53 0 0.0 1.7 0.00 0.00 0.00 45 1010.1
20260507233804 53 0 0.0 1.7 0.00 0.00 0.00 45 1010.1
20260507233725 53 0 0.0 1.7 0.00 0.00 0.00 45 1010.0
20260507233604 53 0 0.0 1.7 0.00 0.00 0.00 45 1010.0
20260507233504 53 0 0.0 1.7 0.00 0.00 0.00 45 1010.0
20260507233404 53 0 0.0 1.7 0.00 0.00 0.00 45 1010.1
20260507233304 53 0 0.0 1.7 0.00 0.00 0.00 45 1010.1
20260507233204 53 0 0.0 1.7 0.00 0.00 0.00 45 1010.1
20260507233125 53 0 0.0 2.6 0.00 0.00 0.00 45 1010.2
20260507233024 53 0 0.0 2.6 0.00 0.00 0.00 46 1010.2
20260507232904 53 279 0.9 2.6 0.00 0.00 0.00 46 1010.2
20260507232804 53 273 0.9 3.5 0.00 0.00 0.00 46 1010.2
20260507232704 53 277 0.9 3.5 0.00 0.00 0.00 46 1010.2
20260507232603 53 278 0.9 3.5 0.00 0.00 0.00 46 1010.2
20260507232504 53 280 0.9 3.5 0.00 0.00 0.00 46 1010.2
20260507232404 53 280 0.9 3.5 0.00 0.00 0.00 45 1010.3
20260507232306 53 279 0.9 3.5 0.00 0.00 0.00 45 1010.1
20260507232204 53 279 0.9 3.5 0.00 0.00 0.00 46 1010.1
20260507232104 53 0 0.0 3.5 0.00 0.00 0.00 45 1010.1
20260507232004 53 0 0.0 3.5 0.00 0.00 0.00 45 1010.2
20260507231904 53 0 0.0 3.5 0.00 0.00 0.00 45 1010.2
20260507231803 53 0 0.0 2.6 0.00 0.00 0.00 45 1010.2
20260507231704 53 0 0.0 1.7 0.00 0.00 0.00 46 1010.3
20260507231604 53 0 0.0 1.7 0.00 0.00 0.00 46 1010.3
20260507231504 53 0 0.0 0.9 0.00 0.00 0.00 46 1010.4
20260507231404 53 0 0.0 2.6 0.00 0.00 0.00 47 1010.4
20260507231304 52 0 0.0 2.6 0.00 0.00 0.00 47 1010.4
20260507231204 52 0 0.0 2.6 0.00 0.00 0.00 49 1010.4
20260507231104 52 0 0.0 2.6 0.00 0.00 0.00 47 1010.4
20260507231004 52 0 0.0 2.6 0.00 0.00 0.00 47 1010.4
20260507230904 52 254 0.9 2.6 0.00 0.00 0.00 47 1010.4
20260507230804 52 254 0.9 2.6 0.00 0.00 0.00 48 1010.4
20260507230704 52 254 0.9 2.6 0.00 0.00 0.00 48 1010.4
20260507230604 52 255 0.9 2.6 0.00 0.00 0.00 48 1010.4
20260507230503 52 255 0.9 2.6 0.00 0.00 0.00 47 1010.5
20260507230403 52 256 0.9 2.6 0.00 0.00 0.00 47 1010.5
20260507230325 52 256 0.9 2.6 0.00 0.00 0.00 47 1010.5
20260507230204 52 256 0.9 2.6 0.00 0.00 0.00 47 1010.4
20260507230104 52 257 0.9 2.6 0.00 0.00 0.00 47 1010.4
20260507230004 52 256 0.9 2.6 0.00 0.00 0.00 47 1010.4
20260507225904 52 256 0.9 2.6 0.00 0.00 0.00 47 1010.5
20260507225804 52 257 0.9 2.6 0.00 0.00 0.00 47 1010.5
20260507225703 52 0 0.0 2.6 0.00 0.00 0.00 46 1010.5
20260507225625 52 0 0.0 2.6 0.00 0.00 0.00 46 1010.5
20260507225504 52 0 0.0 2.6 0.00 0.00 0.00 46 1010.5
20260507225404 52 0 0.0 2.6 0.00 0.00 0.00 46 1010.6
20260507225325 52 0 0.0 0.9 0.00 0.00 0.00 46 1010.6
20260507225203 52 0 0.0 0.9 0.00 0.00 0.00 46 1010.6
20260507225104 52 0 0.0 1.7 0.00 0.00 0.00 46 1010.6
20260507225004 52 222 0.9 2.6 0.00 0.00 0.00 45 1010.6
20260507224904 52 226 0.9 2.6 0.00 0.00 0.00 45 1010.6
20260507224804 53 218 0.9 2.6 0.00 0.00 0.00 45 1010.6
20260507224704 53 229 0.9 2.6 0.00 0.00 0.00 44 1010.6
20260507224604 53 239 0.9 2.6 0.00 0.00 0.00 44 1010.6
20260507224504 53 251 0.9 2.6 0.00 0.00 0.00 44 1010.6
20260507224425 53 258 0.9 2.6 0.00 0.00 0.00 44 1010.7
20260507224303 53 263 0.9 2.6 0.00 0.00 0.00 44 1010.7
20260507224203 53 270 0.9 2.6 0.00 0.00 0.00 45 1010.7
20260507224104 53 284 0.9 4.3 0.00 0.00 0.00 45 1010.8
20260507224004 52 286 1.7 4.3 0.00 0.00 0.00 46 1010.8
20260507223903 52 280 1.7 4.3 0.00 0.00 0.00 45 1010.9
20260507223804 52 280 1.7 4.3 0.00 0.00 0.00 45 1010.9
20260507223704 52 277 1.7 4.3 0.00 0.00 0.00 45 1010.9
20260507223604 52 276 1.7 4.3 0.00 0.00 0.00 44 1010.9
20260507223503 52 274 1.7 4.3 0.00 0.00 0.00 44 1010.9
20260507223403 52 273 1.7 4.3 0.00 0.00 0.00 44 1010.9
20260507223304 52 274 1.7 4.3 0.00 0.00 0.00 43 1010.9
20260507223204 53 272 1.7 4.3 0.00 0.00 0.00 43 1010.9
20260507223124 53 268 1.7 4.3 0.00 0.00 0.00 43 1010.9
20260507223025 53 268 0.9 4.3 0.00 0.00 0.00 43 1010.9
20260507222905 53 277 1.7 4.3 0.00 0.00 0.00 45 1010.9
20260507222804 53 274 1.7 4.3 0.00 0.00 0.00 43 1010.9
20260507222703 53 273 1.7 5.2 0.00 0.00 0.00 44 1010.9
20260507222604 53 274 1.7 5.2 0.00 0.00 0.00 43 1010.9
20260507222504 54 270 1.7 5.2 0.00 0.00 0.00 44 1010.9
20260507222404 54 265 1.7 5.2 0.00 0.00 0.00 43 1010.9
20260507222306 54 264 1.7 5.2 0.00 0.00 0.00 43 1011.0
20260507222204 54 264 1.7 5.2 0.00 0.00 0.00 43 1011.0
20260507222104 54 267 1.7 5.2 0.00 0.00 0.00 43 1011.0
20260507222004 54 269 1.7 5.2 0.00 0.00 0.00 43 1011.0
20260507221924 54 269 1.7 5.2 0.00 0.00 0.00 44 1011.0
20260507221804 54 276 1.7 5.2 0.00 0.00 0.00 43 1010.9
20260507221725 54 279 1.7 4.3 0.00 0.00 0.00 43 1010.9
20260507221625 54 281 1.7 4.3 0.00 0.00 0.00 43 1011.0
20260507221503 54 290 0.9 4.3 0.00 0.00 0.00 44 1010.9
20260507221404 53 294 0.9 4.3 0.00 0.00 0.00 44 1010.9
20260507221304 53 301 0.9 4.3 0.00 0.00 0.00 42 1010.9
20260507221204 54 304 0.9 4.3 0.00 0.00 0.00 42 1010.9
20260507221103 54 300 0.9 4.3 0.00 0.00 0.00 42 1011.0
20260507221004 54 300 0.9 3.5 0.00 0.00 0.00 42 1011.0
20260507220904 54 300 0.9 3.5 0.00 0.00 0.00 42 1011.0
20260507220824 54 296 0.9 3.5 0.00 0.00 0.00 42 1010.9
20260507220724 54 275 0.9 3.5 0.00 0.00 0.00 44 1010.9
20260507220603 54 260 0.9 3.5 0.00 0.00 0.00 44 1011.0
20260507220504 54 263 0.9 3.5 0.00 0.00 0.00 44 1011.0
20260507220425 54 265 0.9 3.5 0.00 0.00 0.00 43 1011.0
20260507220304 54 264 0.9 3.5 0.00 0.00 0.00 43 1010.9
20260507220204 54 264 0.9 3.5 0.00 0.00 0.00 43 1010.9
20260507220104 54 262 0.9 3.5 0.00 0.00 0.00 43 1011.0
20260507220004 54 261 0.9 3.5 0.00 0.00 0.00 43 1010.9
20260507215903 54 252 0.9 3.5 0.00 0.00 0.00 43 1010.9
20260507215804 54 254 0.9 3.5 0.00 0.00 0.00 42 1010.9
20260507215704 54 264 0.9 2.6 0.00 0.00 0.00 43 1010.9
20260507215604 54 271 0.9 2.6 0.00 0.00 0.00 44 1010.9
20260507215503 54 0 0.0 2.6 0.00 0.00 0.00 44 1010.8
20260507215425 54 0 0.0 2.6 0.00 0.00 0.00 44 1010.8
20260507215306 53 280 0.9 2.6 0.00 0.00 0.00 45 1010.8
20260507215224 53 285 0.9 2.6 0.00 0.00 0.00 44 1010.8
20260507215124 53 291 0.9 2.6 0.00 0.00 0.00 44 1010.9
20260507215003 53 0 0.0 2.6 0.00 0.00 0.00 45 1010.9
20260507214904 53 311 0.9 2.6 0.00 0.00 0.00 45 1010.9
20260507214803 52 309 0.9 2.6 0.00 0.00 0.00 45 1010.8
20260507214704 52 305 0.9 2.6 0.00 0.00 0.00 45 1010.9
20260507214604 52 299 0.9 3.5 0.00 0.00 0.00 44 1010.9
20260507214525 52 301 0.9 3.5 0.00 0.00 0.00 44 1011.0
20260507214404 52 301 0.9 3.5 0.00 0.00 0.00 45 1011.0
20260507214303 52 305 0.9 3.5 0.00 0.00 0.00 45 1011.0
20260507214204 52 297 0.9 3.5 0.00 0.00 0.00 45 1011.0
20260507214104 52 293 0.9 3.5 0.00 0.00 0.00 45 1011.0
20260507214003 51 291 0.9 3.5 0.00 0.00 0.00 45 1011.0
20260507213924 51 285 0.9 5.2 0.00 0.00 0.00 46 1011.0
20260507213804 51 275 0.9 5.2 0.00 0.00 0.00 45 1010.9
20260507213725 51 274 0.9 5.2 0.00 0.00 0.00 45 1010.9
20260507213603 51 273 0.9 5.2 0.00 0.00 0.00 45 1011.0
20260507213503 51 268 0.9 5.2 0.00 0.00 0.00 45 1011.0
20260507213404 51 260 0.9 5.2 0.00 0.00 0.00 45 1011.0
20260507213304 51 250 0.9 5.2 0.00 0.00 0.00 45 1011.0
20260507213203 51 250 0.9 5.2 0.00 0.00 0.00 44 1011.1
20260507213103 52 244 1.7 5.2 0.00 0.00 0.00 43 1011.1
20260507213004 52 247 1.7 5.2 0.00 0.00 0.00 43 1011.0
20260507212905 52 247 1.7 5.2 0.00 0.00 0.00 43 1011.0
20260507212803 52 250 1.7 5.2 0.00 0.00 0.00 43 1011.0
20260507212704 52 257 1.7 5.2 0.00 0.00 0.00 44 1010.9
20260507212625 52 261 1.7 5.2 0.00 0.00 0.00 44 1010.9
20260507212504 51 262 1.7 5.2 0.00 0.00 0.00 44 1011.0
20260507212425 51 264 1.7 5.2 0.00 0.00 0.00 44 1011.0
20260507212306 51 266 1.7 5.2 0.00 0.00 0.00 44 1011.0
20260507212204 51 264 1.7 5.2 0.00 0.00 0.00 44 1011.1
20260507212103 51 269 1.7 5.2 0.00 0.00 0.00 44 1011.0
20260507212004 51 266 1.7 5.2 0.00 0.00 0.00 44 1011.0
20260507211903 52 263 1.7 5.2 0.00 0.00 0.00 44 1011.1
20260507211804 52 266 1.7 5.2 0.00 0.00 0.00 43 1011.1
20260507211725 52 267 1.7 5.2 0.00 0.00 0.00 44 1011.0
20260507211603 52 266 1.7 5.2 0.00 0.00 0.00 44 1011.1
20260507211503 52 266 1.7 5.2 0.00 0.00 0.00 43 1011.1
20260507211404 52 267 1.7 5.2 0.00 0.00 0.00 45 1011.1
20260507211304 51 271 1.7 5.2 0.00 0.00 0.00 44 1011.1
20260507211203 51 271 1.7 5.2 0.00 0.00 0.00 43 1011.2
20260507211103 52 271 1.7 5.2 0.00 0.00 0.00 43 1011.2
20260507211004 52 276 1.7 5.2 0.00 0.00 0.00 43 1011.2
20260507210904 52 289 0.9 4.3 0.00 0.00 0.00 43 1011.2
20260507210803 52 288 0.9 3.5 0.00 0.00 0.00 43 1011.2
20260507210703 52 293 0.9 2.6 0.00 0.00 0.00 43 1011.3
20260507210604 52 290 0.9 2.6 0.00 0.00 0.00 44 1011.3
20260507210504 52 291 0.9 5.2 0.00 0.00 0.00 45 1011.3
20260507210403 52 282 1.7 6.1 0.00 0.00 0.00 45 1011.3
20260507210303 52 276 1.7 6.1 0.00 0.00 0.00 43 1011.2
20260507210203 52 277 1.7 6.1 0.00 0.00 0.00 44 1011.2
20260507210104 52 279 1.7 6.1 0.00 0.00 0.00 44 1011.3
20260507210004 52 275 1.7 6.1 0.00 0.00 0.00 45 1011.3
20260507205903 51 272 1.7 6.1 0.00 0.00 0.00 45 1011.3
20260507205803 51 270 1.7 6.1 0.00 0.00 0.00 43 1011.3
20260507205704 51 267 2.6 6.1 0.00 0.00 0.00 44 1011.3
20260507205604 51 262 2.6 6.1 0.00 0.00 0.00 44 1011.3
20260507205504 51 262 2.6 6.1 0.00 0.00 0.00 44 1011.3
20260507205404 52 261 1.7 5.2 0.00 0.00 0.00 44 1011.3
20260507205324 52 258 1.7 5.2 0.00 0.00 0.00 44 1011.3
20260507205204 52 255 1.7 5.2 0.00 0.00 0.00 44 1011.3
20260507205104 52 252 1.7 5.2 0.00 0.00 0.00 44 1011.4
20260507205004 52 248 1.7 5.2 0.00 0.00 0.00 43 1011.4
20260507204903 52 246 1.7 5.2 0.00 0.00 0.00 43 1011.4
20260507204804 52 243 1.7 5.2 0.00 0.00 0.00 43 1011.3
20260507204704 52 245 1.7 5.2 0.00 0.00 0.00 43 1011.3
20260507204624 52 244 1.7 5.2 0.00 0.00 0.00 44 1011.3
20260507204504 52 238 0.9 4.3 0.00 0.00 0.00 42 1011.3
20260507204424 52 234 0.9 4.3 0.00 0.00 0.00 42 1011.3
20260507204303 52 240 0.9 6.1 0.00 0.00 0.00 43 1011.3
20260507204203 52 219 0.9 6.1 0.00 0.00 0.00 44 1011.3
20260507204103 51 199 0.9 6.1 0.00 0.00 0.00 43 1011.2
20260507204003 51 191 1.7 6.1 0.00 0.00 0.00 44 1011.2
20260507203903 51 197 1.7 6.1 0.00 0.00 0.00 44 1011.2
20260507203803 51 206 1.7 6.1 0.00 0.00 0.00 45 1011.3
20260507203703 50 207 1.7 6.1 0.00 0.00 0.00 44 1011.3
20260507203603 50 206 1.7 6.1 0.00 0.00 0.00 44 1011.3
20260507203503 50 200 1.7 6.1 0.00 0.00 0.00 43 1011.3
20260507203403 51 197 1.7 6.1 0.00 0.00 0.00 43 1011.3
20260507203303 51 171 1.7 4.3 0.00 0.00 0.00 43 1011.4
20260507203203 51 186 2.6 6.1 0.00 0.00 0.00 42 1011.4
20260507203104 51 225 2.6 9.6 0.00 0.00 0.00 43 1011.4
20260507203004 51 239 2.6 9.6 0.00 0.00 0.00 43 1011.4
20260507202903 51 244 2.6 9.6 0.00 0.00 0.00 45 1011.4
20260507202803 51 249 2.6 9.6 0.00 0.00 0.00 44 1011.4
20260507202703 51 250 2.6 9.6 0.00 0.00 0.00 44 1011.5
20260507202603 50 250 2.6 9.6 0.00 0.00 0.00 45 1011.5
20260507202503 50 253 2.6 9.6 0.00 0.00 0.00 45 1011.6
20260507202403 50 256 2.6 9.6 0.00 0.00 0.00 45 1011.6
20260507202306 50 257 2.6 9.6 0.00 0.00 0.00 45 1011.6
20260507202224 50 253 2.6 9.6 0.00 0.00 0.00 44 1011.6
20260507202103 50 236 2.6 7.0 0.00 0.00 0.00 44 1011.6
20260507202004 51 229 2.6 7.0 0.00 0.00 0.00 44 1011.6
20260507201903 51 218 2.6 7.0 0.00 0.00 0.00 46 1011.6
20260507201824 50 218 2.6 7.0 0.00 0.00 0.00 45 1011.7
20260507201703 50 224 2.6 7.0 0.00 0.00 0.00 45 1011.7
20260507201625 50 228 2.6 7.0 0.00 0.00 0.00 44 1011.7
20260507201504 50 228 2.6 7.0 0.00 0.00 0.00 45 1011.8
20260507201403 50 226 2.6 7.0 0.00 0.00 0.00 45 1011.8
20260507201303 50 228 2.6 7.0 0.00 0.00 0.00 44 1011.9
20260507201203 50 235 2.6 7.0 0.00 0.00 0.00 45 1011.9
20260507201103 50 242 2.6 7.0 0.00 0.00 0.00 45 1011.9
20260507201004 50 244 2.6 7.0 0.00 0.00 0.00 45 1012.0
20260507200903 50 249 2.6 7.0 0.00 0.00 0.00 45 1012.0
20260507200803 50 248 2.6 7.0 0.00 0.00 0.00 45 1012.0
20260507200724 50 246 2.6 6.1 0.00 0.00 0.00 44 1012.1
20260507200603 50 241 1.7 6.1 0.00 0.00 0.00 45 1012.1
20260507200503 50 242 1.7 6.1 0.00 0.00 0.00 45 1012.1
20260507200424 50 242 1.7 6.1 0.00 0.00 0.00 44 1012.1
20260507200303 50 240 1.7 6.1 0.00 0.00 0.00 45 1012.1
20260507200204 50 234 1.7 6.1 0.00 0.00 0.00 45 1012.2
20260507200125 50 235 1.7 6.1 0.00 0.00 0.00 44 1012.2
20260507200004 50 237 1.7 6.1 0.00 0.00 0.00 44 1012.2
20260507195903 50 238 1.7 7.8 0.00 0.00 0.00 44 1012.2
20260507195804 50 238 1.7 7.8 0.00 0.00 0.00 44 1012.2
20260507195703 50 240 1.7 7.8 0.00 0.00 0.00 46 1012.2
20260507195603 50 244 2.6 8.7 0.00 0.00 0.00 45 1012.2
20260507195503 50 243 2.6 8.7 0.00 0.00 0.00 46 1012.2
20260507195403 50 245 2.6 8.7 0.00 0.00 0.00 45 1012.2
20260507195324 50 245 2.6 8.7 0.00 0.00 0.00 45 1012.2
20260507195203 49 255 2.6 8.7 0.00 0.00 0.00 46 1012.2
20260507195103 49 256 2.6 8.7 0.00 0.00 0.00 45 1012.3
20260507195003 49 256 2.6 8.7 0.00 0.00 0.00 45 1012.3
20260507194904 49 258 2.6 8.7 0.00 0.00 0.00 44 1012.3
20260507194804 50 256 2.6 8.7 0.00 0.00 0.00 44 1012.3
20260507194703 50 251 2.6 8.7 0.00 0.00 0.00 45 1012.3
20260507194624 50 249 2.6 8.7 0.00 0.00 0.00 45 1012.3
20260507194507 50 249 2.6 6.1 0.00 0.00 0.00 46 1012.3
20260507194407 50 245 2.6 6.1 0.00 0.00 0.00 45 1012.2
20260507194306 50 243 2.6 6.1 0.00 0.00 0.00 45 1012.2
20260507194206 50 225 2.6 6.1 0.00 0.00 0.00 47 1012.3
20260507194106 50 220 2.6 6.1 0.00 0.00 0.00 47 1012.3
20260507194006 50 219 2.6 6.1 0.00 0.00 0.00 47 1012.3
20260507193928 49 219 2.6 6.1 0.00 0.00 0.00 47 1012.3
20260507193807 49 225 3.5 8.7 0.00 0.00 0.00 48 1012.3
20260507193706 49 230 3.5 8.7 0.00 0.00 0.00 48 1012.3
20260507193607 49 232 3.5 8.7 0.00 0.00 0.00 48 1012.4
20260507193528 49 232 3.5 8.7 0.00 0.00 0.00 48 1012.4
20260507193406 49 238 4.3 8.7 0.00 0.00 0.00 48 1012.4
20260507193306 49 240 4.3 8.7 0.00 0.00 0.00 49 1012.5
20260507193206 49 245 4.3 8.7 0.00 0.00 0.00 49 1012.5
20260507193107 49 247 4.3 8.7 0.00 0.00 0.00 50 1012.5
20260507193007 48 248 4.3 8.7 0.00 0.00 0.00 50 1012.5
20260507192907 48 245 4.3 8.7 0.00 0.00 0.00 49 1012.5
20260507192806 49 241 3.5 8.7 0.00 0.00 0.00 50 1012.6
20260507192706 49 239 3.5 8.7 0.00 0.00 0.00 49 1012.6
20260507192628 48 237 3.5 7.8 0.00 0.00 0.00 48 1012.6
20260507192506 48 239 3.5 8.7 0.00 0.00 0.00 48 1012.6
20260507192406 49 233 3.5 8.7 0.00 0.00 0.00 49 1012.6
20260507192327 49 230 3.5 8.7 0.00 0.00 0.00 49 1012.6
20260507192228 49 230 3.5 8.7 0.00 0.00 0.00 48 1012.6
20260507192107 49 237 3.5 8.7 0.00 0.00 0.00 47 1012.6
20260507192006 49 240 3.5 8.7 0.00 0.00 0.00 47 1012.6
20260507191906 48 241 3.5 8.7 0.00 0.00 0.00 48 1012.6
20260507191806 48 244 3.5 8.7 0.00 0.00 0.00 47 1012.7
20260507191728 48 246 3.5 8.7 0.00 0.00 0.00 45 1012.7
20260507191606 49 252 4.3 8.7 0.00 0.00 0.00 48 1012.7
20260507191527 49 249 4.3 9.6 0.00 0.00 0.00 49 1012.7
20260507191427 49 249 4.3 9.6 0.00 0.00 0.00 50 1012.7
20260507191306 48 251 4.3 9.6 0.00 0.00 0.00 49 1012.7
20260507191207 48 249 4.3 9.6 0.00 0.00 0.00 49 1012.7
20260507191107 48 246 4.3 9.6 0.00 0.00 0.00 49 1012.7
20260507191006 48 245 4.3 9.6 0.00 0.00 0.00 48 1012.8
20260507190927 48 245 4.3 9.6 0.00 0.00 0.00 50 1012.8
20260507190807 48 247 4.3 9.6 0.00 0.00 0.00 52 1012.8
20260507190707 48 242 4.3 9.6 0.00 0.00 0.00 51 1012.8
20260507190607 48 243 4.3 11.3 0.00 0.00 0.00 51 1012.8
20260507190506 48 245 4.3 11.3 0.00 0.00 0.00 50 1012.8
20260507190406 48 250 4.3 12.2 0.00 0.00 0.00 50 1012.8
20260507190307 49 249 4.3 12.2 0.00 0.00 0.00 51 1012.8
20260507190207 48 250 5.2 12.2 0.00 0.00 0.00 52 1012.8
20260507190106 48 252 5.2 12.2 0.00 0.00 0.00 52 1012.8
20260507190006 48 256 5.2 12.2 0.00 0.00 0.00 50 1012.8
20260507185907 48 258 5.2 12.2 0.00 0.00 0.00 50 1012.8
20260507185806 48 259 5.2 12.2 0.00 0.00 0.00 51 1012.8
20260507185706 48 261 5.2 12.2 0.00 0.00 0.00 50 1012.8
20260507185606 48 259 5.2 12.2 0.00 0.00 0.00 51 1012.8
20260507185506 48 258 4.3 12.2 0.00 0.00 0.00 51 1012.7
20260507185406 48 256 4.3 11.3 0.00 0.00 0.00 48 1012.7
20260507185306 48 255 4.3 9.6 0.00 0.00 0.00 48 1012.8
20260507185207 48 254 4.3 9.6 0.00 0.00 0.00 49 1012.8
20260507185106 48 252 5.2 11.3 0.00 0.00 0.00 50 1012.8
20260507185006 48 249 4.3 11.3 0.00 0.00 0.00 50 1012.8
20260507184906 48 247 4.3 11.3 0.00 0.00 0.00 49 1012.8
20260507184806 48 246 4.3 11.3 0.00 0.00 0.00 50 1012.8
20260507184728 48 246 4.3 11.3 0.00 0.00 0.00 50 1012.8
20260507184607 48 246 4.3 11.3 0.00 0.00 0.00 49 1012.7
20260507184506 48 248 4.3 11.3 0.00 0.00 0.00 49 1012.7
20260507184406 48 250 4.3 11.3 0.00 0.00 0.00 48 1012.7
20260507184327 48 251 4.3 11.3 0.00 0.00 0.00 48 1012.7
20260507184207 48 254 4.3 11.3 0.00 0.00 0.00 49 1012.7
20260507184128 48 254 4.3 11.3 0.00 0.00 0.00 49 1012.7
20260507184027 49 256 3.5 8.7 0.00 0.00 0.00 51 1012.6
20260507183927 49 255 3.5 8.7 0.00 0.00 0.00 51 1012.6
20260507183806 48 259 3.5 8.7 0.00 0.00 0.00 49 1012.6
20260507183706 48 257 4.3 8.7 0.00 0.00 0.00 48 1012.7
20260507183606 48 258 4.3 8.7 0.00 0.00 0.00 45 1012.7
20260507183506 48 256 4.3 11.3 0.00 0.00 0.00 44 1012.7
20260507183406 49 255 4.3 11.3 0.00 0.00 0.00 45 1012.6
20260507183307 49 255 4.3 11.3 0.00 0.00 0.00 46 1012.6
20260507183206 48 254 4.3 11.3 0.00 0.00 0.00 44 1012.7
20260507183127 48 252 4.3 11.3 0.00 0.00 0.00 46 1012.7
20260507183006 48 252 5.2 11.3 0.00 0.00 0.00 46 1012.7
20260507182906 48 253 5.2 11.3 0.00 0.00 0.00 45 1012.7
20260507182807 48 253 4.3 11.3 0.00 0.00 0.00 45 1012.7
20260507182706 48 252 4.3 11.3 0.00 0.00 0.00 45 1012.6
20260507182606 49 252 4.3 11.3 0.00 0.00 0.00 44 1012.6
20260507182527 49 253 4.3 10.4 0.00 0.00 0.00 45 1012.6
20260507182406 49 254 4.3 10.4 0.00 0.00 0.00 46 1012.6